Wetterdaten: Samstag, 18.03.2017
Datum Zeit Temp. Aussen Temp. o. S. +5cm Feuchte Auss BlattFeu 1 Luftdruck Regen Sonnenschein Regendauer Solar Windben Empfang
18.03.2017 00:00 7,1 C 5,6 C 3,9 C 78 % 15 lf 1008,5 hPa 0,2 l/m 0 min 2 min 0 W/m 41,8 km/h (6 Bft) 97,14 %
18.03.2017 00:02 7,0 C 5,6 C 3,9 C 79 % 15 lf 1008,5 hPa 0,0 l/m 0 min 2 min 0 W/m 27,2 km/h (4 Bft) 100,00 %
18.03.2017 00:05 6,9 C 5,6 C 3,9 C 80 % 15 lf 1008,1 hPa 0,0 l/m 0 min 2 min 0 W/m 33,5 km/h (5 Bft) 98,57 %
18.03.2017 00:08 6,8 C 5,6 C 3,9 C 81 % 15 lf 1008,2 hPa 0,0 l/m 0 min 2 min 0 W/m 41,8 km/h (6 Bft) 98,57 %
18.03.2017 00:10 6,7 C 5,0 C 3,9 C 81 % 15 lf 1008,3 hPa 0,0 l/m 0 min 2 min 0 W/m 39,7 km/h (6 Bft) 95,74 %
18.03.2017 00:12 6,7 C 5,0 C 3,9 C 82 % 15 lf 1008,2 hPa 0,0 l/m 0 min 2 min 0 W/m 35,6 km/h (5 Bft) 97,87 %
18.03.2017 00:14 6,7 C 5,0 C 3,9 C 82 % 15 lf 1008,1 hPa 0,0 l/m 0 min 2 min 0 W/m 27,2 km/h (4 Bft) 93,62 %
18.03.2017 00:16 6,6 C 5,0 C 3,9 C 83 % 15 lf 1008,1 hPa 0,0 l/m 0 min 2 min 0 W/m 23,0 km/h (4 Bft) 89,13 %
18.03.2017 00:18 6,6 C 5,0 C 3,9 C 83 % 15 lf 1008,1 hPa 0,2 l/m 0 min 2 min 0 W/m 31,4 km/h (5 Bft) 97,87 %
18.03.2017 00:20 6,5 C 5,0 C 3,9 C 84 % 15 lf 1008,1 hPa 0,0 l/m 0 min 2 min 0 W/m 23,0 km/h (4 Bft) 95,74 %
18.03.2017 00:22 6,4 C 5,0 C 3,9 C 84 % 15 lf 1008,0 hPa 0,0 l/m 0 min 2 min 0 W/m 23,0 km/h (4 Bft) 95,74 %
18.03.2017 00:24 6,4 C 5,0 C 3,9 C 84 % 15 lf 1008,0 hPa 0,2 l/m 0 min 2 min 0 W/m 29,3 km/h (5 Bft) 93,62 %
18.03.2017 00:26 6,4 C 5,0 C 3,9 C 85 % 15 lf 1008,0 hPa 0,0 l/m 0 min 2 min 0 W/m 27,2 km/h (4 Bft) 95,74 %
18.03.2017 00:28 6,3 C 5,0 C 3,9 C 85 % 15 lf 1007,9 hPa 0,0 l/m 0 min 2 min 0 W/m 23,0 km/h (4 Bft) 95,65 %
18.03.2017 00:30 6,3 C 5,0 C 3,9 C 86 % 15 lf 1008,0 hPa 0,0 l/m 0 min 2 min 0 W/m 29,3 km/h (5 Bft) 95,74 %
18.03.2017 00:32 6,3 C 5,0 C 3,9 C 86 % 15 lf 1007,9 hPa 0,0 l/m 0 min 2 min 0 W/m 31,4 km/h (5 Bft) 97,87 %
18.03.2017 00:34 6,2 C 5,0 C 3,9 C 86 % 15 lf 1007,7 hPa 0,0 l/m 0 min 2 min 0 W/m 29,3 km/h (5 Bft) 93,62 %
18.03.2017 00:36 6,2 C 5,0 C 3,9 C 87 % 15 lf 1007,7 hPa 0,2 l/m 0 min 2 min 0 W/m 20,9 km/h (4 Bft) 90,74 %
18.03.2017 00:38 6,2 C 5,0 C 3,9 C 87 % 15 lf 1007,5 hPa 0,0 l/m 0 min 2 min 0 W/m 23,0 km/h (4 Bft) 93,48 %
18.03.2017 00:40 6,2 C 5,0 C 3,9 C 87 % 15 lf 1007,6 hPa 0,0 l/m 0 min 2 min 0 W/m 25,1 km/h (4 Bft) 91,49 %
18.03.2017 00:42 6,1 C 5,0 C 3,9 C 88 % 15 lf 1007,5 hPa 0,0 l/m 0 min 2 min 0 W/m 27,2 km/h (4 Bft) 93,75 %
18.03.2017 00:44 6,1 C 5,6 C 3,9 C 88 % 15 lf 1007,4 hPa 0,0 l/m 0 min 2 min 0 W/m 31,4 km/h (5 Bft) 91,49 %
18.03.2017 00:46 6,1 C 5,6 C 3,9 C 88 % 15 lf 1007,4 hPa 0,0 l/m 0 min 2 min 0 W/m 29,3 km/h (5 Bft) 95,74 %
18.03.2017 00:48 6,1 C 5,6 C 3,9 C 89 % 15 lf 1007,3 hPa 0,2 l/m 0 min 2 min 0 W/m 31,4 km/h (5 Bft) 93,62 %
18.03.2017 00:50 6,1 C 5,6 C 3,9 C 89 % 15 lf 1007,3 hPa 0,0 l/m 0 min 2 min 0 W/m 33,5 km/h (5 Bft) 95,65 %
18.03.2017 00:52 6,1 C 5,6 C 3,9 C 89 % 15 lf 1007,2 hPa 0,0 l/m 0 min 2 min 0 W/m 35,6 km/h (5 Bft) 95,74 %
18.03.2017 00:54 6,1 C 5,6 C 4,4 C 89 % 15 lf 1007,2 hPa 0,0 l/m 0 min 2 min 0 W/m 29,3 km/h (5 Bft) 93,62 %
18.03.2017 00:56 6,1 C 5,6 C 3,9 C 89 % 15 lf 1007,1 hPa 0,0 l/m 0 min 2 min 0 W/m 27,2 km/h (4 Bft) 91,49 %
18.03.2017 00:58 6,1 C 5,6 C 4,4 C 90 % 15 lf 1006,9 hPa 0,2 l/m 0 min 2 min 0 W/m 33,5 km/h (5 Bft) 93,62 %
18.03.2017 01:00 6,1 C 5,6 C 4,4 C 90 % 15 lf 1006,9 hPa 0,0 l/m 0 min 2 min 0 W/m 25,1 km/h (4 Bft) 93,62 %
18.03.2017 01:02 6,1 C 5,6 C 4,4 C 90 % 15 lf 1006,7 hPa 0,0 l/m 0 min 2 min 0 W/m 39,7 km/h (6 Bft) 89,13 %
18.03.2017 01:04 6,1 C 5,6 C 4,4 C 90 % 15 lf 1006,8 hPa 0,0 l/m 0 min 2 min 0 W/m 29,3 km/h (5 Bft) 93,62 %
18.03.2017 01:06 6,1 C 5,6 C 4,4 C 91 % 15 lf 1006,7 hPa 0,0 l/m 0 min 2 min 0 W/m 31,4 km/h (5 Bft) 96,00 %
18.03.2017 01:08 6,1 C 5,6 C 4,4 C 91 % 15 lf 1006,7 hPa 0,0 l/m 0 min 2 min 0 W/m 27,2 km/h (4 Bft) 93,62 %
18.03.2017 01:10 6,1 C 5,6 C 4,4 C 91 % 15 lf 1006,7 hPa 0,0 l/m 0 min 2 min 0 W/m 23,0 km/h (4 Bft) 95,74 %
18.03.2017 01:12 6,1 C 5,6 C 4,4 C 91 % 15 lf 1006,7 hPa 0,0 l/m 0 min 0 min 0 W/m 33,5 km/h (5 Bft) 88,89 %
18.03.2017 01:14 6,1 C 5,6 C 4,4 C 91 % 15 lf 1006,7 hPa 0,0 l/m 0 min 0 min 0 W/m 35,6 km/h (5 Bft) 95,65 %
18.03.2017 01:16 6,1 C 5,6 C 4,4 C 91 % 15 lf 1006,6 hPa 0,0 l/m 0 min 0 min 0 W/m 39,7 km/h (6 Bft) 91,49 %
18.03.2017 01:18 6,1 C 5,6 C 4,4 C 91 % 15 lf 1006,7 hPa 0,0 l/m 0 min 2 min 0 W/m 31,4 km/h (5 Bft) 95,74 %
18.03.2017 01:20 6,1 C 5,6 C 4,4 C 91 % 15 lf 1006,5 hPa 0,0 l/m 0 min 0 min 0 W/m 35,6 km/h (5 Bft) 94,92 %
18.03.2017 01:22 6,1 C 5,6 C 4,4 C 91 % 15 lf 1006,4 hPa 0,0 l/m 0 min 2 min 0 W/m 46,0 km/h (6 Bft) 94,29 %
18.03.2017 01:24 6,1 C 5,6 C 4,4 C 91 % 15 lf 1006,4 hPa 0,0 l/m 0 min 2 min 0 W/m 37,7 km/h (5 Bft) 93,62 %
18.03.2017 01:26 6,1 C 5,6 C 4,4 C 92 % 15 lf 1006,5 hPa 0,2 l/m 0 min 2 min 0 W/m 48,1 km/h (6 Bft) 95,65 %
18.03.2017 01:28 6,1 C 5,6 C 4,4 C 92 % 15 lf 1006,5 hPa 0,0 l/m 0 min 2 min 0 W/m 35,6 km/h (5 Bft) 95,74 %
18.03.2017 01:30 6,1 C 5,6 C 4,4 C 92 % 15 lf 1006,7 hPa 0,0 l/m 0 min 2 min 0 W/m 27,2 km/h (4 Bft) 95,74 %
18.03.2017 01:32 6,1 C 5,6 C 4,4 C 92 % 15 lf 1006,6 hPa 0,0 l/m 0 min 2 min 0 W/m 52,3 km/h (7 Bft) 95,74 %
18.03.2017 01:34 6,1 C 5,6 C 4,4 C 92 % 15 lf 1006,6 hPa 0,0 l/m 0 min 2 min 0 W/m 43,9 km/h (6 Bft) 97,87 %
18.03.2017 01:36 6,1 C 5,6 C 4,4 C 92 % 15 lf 1006,6 hPa 0,2 l/m 0 min 2 min 0 W/m 48,1 km/h (6 Bft) 98,15 %
18.03.2017 01:38 6,1 C 5,6 C 4,4 C 92 % 15 lf 1006,4 hPa 0,0 l/m 0 min 2 min 0 W/m 33,5 km/h (5 Bft) 93,48 %
18.03.2017 01:40 6,1 C 5,6 C 4,4 C 92 % 15 lf 1006,6 hPa 0,0 l/m 0 min 2 min 0 W/m 33,5 km/h (5 Bft) 93,62 %
18.03.2017 01:42 6,1 C 5,6 C 4,4 C 92 % 15 lf 1006,5 hPa 0,0 l/m 0 min 2 min 0 W/m 31,4 km/h (5 Bft) 95,83 %
18.03.2017 01:44 6,1 C 5,6 C 4,4 C 92 % 15 lf 1006,4 hPa 0,0 l/m 0 min 2 min 0 W/m 37,7 km/h (5 Bft) 97,87 %
18.03.2017 01:46 6,1 C 5,6 C 4,4 C 92 % 15 lf 1006,4 hPa 0,0 l/m 0 min 2 min 0 W/m 39,7 km/h (6 Bft) 91,49 %
18.03.2017 01:48 6,1 C 5,6 C 4,4 C 92 % 15 lf 1006,4 hPa 0,0 l/m 0 min 2 min 0 W/m 52,3 km/h (7 Bft) 95,74 %
18.03.2017 01:50 6,1 C 5,6 C 4,4 C 92 % 15 lf 1006,3 hPa 0,0 l/m 0 min 2 min 0 W/m 35,6 km/h (5 Bft) 97,83 %
18.03.2017 01:52 6,1 C 5,6 C 4,4 C 92 % 15 lf 1006,3 hPa 0,2 l/m 0 min 2 min 0 W/m 31,4 km/h (5 Bft) 95,83 %
18.03.2017 01:54 6,0 C 5,6 C 4,4 C 92 % 15 lf 1006,2 hPa 0,0 l/m 0 min 2 min 0 W/m 37,7 km/h (5 Bft) 93,62 %
18.03.2017 01:56 6,0 C 5,6 C 4,4 C 92 % 15 lf 1006,0 hPa 0,0 l/m 0 min 2 min 0 W/m 39,7 km/h (6 Bft) 93,62 %
18.03.2017 01:58 6,0 C 5,6 C 4,4 C 92 % 15 lf 1006,0 hPa 0,0 l/m 0 min 2 min 0 W/m 39,7 km/h (6 Bft) 95,74 %
18.03.2017 02:00 6,0 C 5,6 C 4,4 C 92 % 15 lf 1005,8 hPa 0,0 l/m 0 min 2 min 0 W/m 37,7 km/h (5 Bft) 95,65 %
18.03.2017 02:02 5,9 C 5,6 C 4,4 C 92 % 15 lf 1005,7 hPa 0,0 l/m 0 min 2 min 0 W/m 35,6 km/h (5 Bft) 93,88 %
18.03.2017 02:04 5,9 C 5,6 C 4,4 C 92 % 15 lf 1005,7 hPa 0,0 l/m 0 min 2 min 0 W/m 27,2 km/h (4 Bft) 95,74 %
18.03.2017 02:06 5,9 C 5,6 C 4,4 C 92 % 15 lf 1005,7 hPa 0,0 l/m 0 min 2 min 0 W/m 35,6 km/h (5 Bft) 97,22 %
18.03.2017 02:08 5,9 C 5,6 C 4,4 C 93 % 15 lf 1005,4 hPa 0,0 l/m 0 min 2 min 0 W/m 29,3 km/h (5 Bft) 93,62 %
18.03.2017 02:10 5,9 C 5,6 C 4,4 C 93 % 15 lf 1005,5 hPa 0,0 l/m 0 min 2 min 0 W/m 33,5 km/h (5 Bft) 95,74 %
18.03.2017 02:12 5,9 C 5,6 C 4,4 C 93 % 15 lf 1005,3 hPa 0,0 l/m 0 min 2 min 0 W/m 27,2 km/h (4 Bft) 97,87 %
18.03.2017 02:14 5,9 C 5,6 C 4,4 C 93 % 15 lf 1005,2 hPa 0,0 l/m 0 min 2 min 0 W/m 29,3 km/h (5 Bft) 95,65 %
18.03.2017 02:16 5,9 C 5,6 C 4,4 C 93 % 15 lf 1005,1 hPa 0,0 l/m 0 min 2 min 0 W/m 37,7 km/h (5 Bft) 93,62 %
18.03.2017 02:18 5,9 C 5,6 C 4,4 C 93 % 15 lf 1005,1 hPa 0,0 l/m 0 min 2 min 0 W/m 39,7 km/h (6 Bft) 97,87 %
18.03.2017 02:20 5,9 C 5,6 C 4,4 C 93 % 15 lf 1004,9 hPa 0,0 l/m 0 min 2 min 0 W/m 41,8 km/h (6 Bft) 97,87 %
18.03.2017 02:22 5,9 C 5,6 C 4,4 C 93 % 15 lf 1004,8 hPa 0,0 l/m 0 min 2 min 0 W/m 39,7 km/h (6 Bft) 97,87 %
18.03.2017 02:24 5,9 C 5,6 C 4,4 C 93 % 15 lf 1004,8 hPa 0,0 l/m 0 min 2 min 0 W/m 39,7 km/h (6 Bft) 95,65 %
18.03.2017 02:26 5,9 C 5,6 C 4,4 C 93 % 15 lf 1004,6 hPa 0,2 l/m 0 min 0 min 0 W/m 39,7 km/h (6 Bft) 97,87 %
18.03.2017 02:28 5,9 C 5,6 C 4,4 C 93 % 15 lf 1004,5 hPa 0,0 l/m 0 min 0 min 0 W/m 43,9 km/h (6 Bft) 97,87 %
18.03.2017 02:30 5,9 C 5,6 C 4,4 C 93 % 15 lf 1004,6 hPa 0,0 l/m 0 min 0 min 0 W/m 46,0 km/h (6 Bft) 97,87 %
18.03.2017 02:32 5,9 C 5,6 C 4,4 C 93 % 15 lf 1004,7 hPa 0,0 l/m 0 min 0 min 0 W/m 35,6 km/h (5 Bft) 100,00 %
18.03.2017 02:34 5,9 C 5,6 C 4,4 C 93 % 15 lf 1004,6 hPa 0,0 l/m 0 min 0 min 0 W/m 43,9 km/h (6 Bft) 97,87 %
18.03.2017 02:36 5,9 C 5,6 C 4,4 C 94 % 15 lf 1004,6 hPa 0,0 l/m 0 min 0 min 0 W/m 31,4 km/h (5 Bft) 98,15 %
18.03.2017 02:38 5,9 C 5,6 C 4,4 C 94 % 15 lf 1004,8 hPa 0,0 l/m 0 min 0 min 0 W/m 46,0 km/h (6 Bft) 97,87 %
18.03.2017 02:40 5,9 C 5,6 C 4,4 C 94 % 15 lf 1005,0 hPa 0,0 l/m 0 min 0 min 0 W/m 46,0 km/h (6 Bft) 95,74 %
18.03.2017 02:42 6,0 C 5,6 C 4,4 C 94 % 15 lf 1005,0 hPa 0,0 l/m 0 min 0 min 0 W/m 35,6 km/h (5 Bft) 100,00 %
18.03.2017 02:44 6,0 C 5,6 C 4,4 C 94 % 15 lf 1004,9 hPa 0,0 l/m 0 min 0 min 0 W/m 37,7 km/h (5 Bft) 97,87 %
18.03.2017 02:46 6,0 C 5,6 C 4,4 C 94 % 15 lf 1005,0 hPa 0,0 l/m 0 min 0 min 0 W/m 43,9 km/h (6 Bft) 97,83 %
18.03.2017 02:48 6,1 C 5,6 C 4,4 C 94 % 15 lf 1005,0 hPa 0,0 l/m 0 min 0 min 0 W/m 52,3 km/h (7 Bft) 97,87 %
18.03.2017 02:50 6,1 C 5,6 C 4,4 C 94 % 15 lf 1004,9 hPa 0,0 l/m 0 min 0 min 0 W/m 48,1 km/h (6 Bft) 100,00 %
18.03.2017 02:52 6,1 C 5,6 C 4,4 C 94 % 15 lf 1005,0 hPa 0,0 l/m 0 min 2 min 0 W/m 43,9 km/h (6 Bft) 100,00 %
18.03.2017 02:54 6,1 C 5,6 C 4,4 C 94 % 15 lf 1004,9 hPa 0,0 l/m 0 min 2 min 0 W/m 25,1 km/h (4 Bft) 95,74 %
18.03.2017 02:56 6,1 C 6,1 C 4,4 C 94 % 15 lf 1004,9 hPa 0,0 l/m 0 min 0 min 0 W/m 41,8 km/h (6 Bft) 95,74 %
18.03.2017 02:58 6,1 C 6,1 C 4,4 C 94 % 15 lf 1004,8 hPa 0,0 l/m 0 min 2 min 0 W/m 46,0 km/h (6 Bft) 97,87 %
18.03.2017 03:00 6,2 C 6,1 C 4,4 C 94 % 15 lf 1004,8 hPa 0,0 l/m 0 min 2 min 0 W/m 39,7 km/h (6 Bft) 95,65 %
18.03.2017 03:02 6,2 C 6,1 C 4,4 C 94 % 15 lf 1004,8 hPa 0,0 l/m 0 min 2 min 0 W/m 39,7 km/h (6 Bft) 91,84 %
18.03.2017 03:04 6,2 C 6,1 C 4,4 C 94 % 15 lf 1004,6 hPa 0,0 l/m 0 min 2 min 0 W/m 50,2 km/h (7 Bft) 97,87 %
18.03.2017 03:06 6,2 C 6,1 C 4,4 C 94 % 15 lf 1004,5 hPa 0,2 l/m 0 min 2 min 0 W/m 46,0 km/h (6 Bft) 94,59 %
18.03.2017 03:08 6,2 C 6,1 C 4,4 C 94 % 15 lf 1004,5 hPa 0,0 l/m 0 min 2 min 0 W/m 50,2 km/h (7 Bft) 94,83 %
18.03.2017 03:10 6,2 C 6,1 C 5,0 C 95 % 15 lf 1004,5 hPa 0,0 l/m 0 min 2 min 0 W/m 35,6 km/h (5 Bft) 95,74 %
18.03.2017 03:12 6,2 C 6,1 C 5,0 C 95 % 15 lf 1004,5 hPa 0,0 l/m 0 min 2 min 0 W/m 37,7 km/h (5 Bft) 97,14 %
18.03.2017 03:14 6,2 C 6,1 C 5,0 C 95 % 15 lf 1004,4 hPa 0,0 l/m 0 min 2 min 0 W/m 31,4 km/h (5 Bft) 97,87 %
18.03.2017 03:16 6,3 C 6,1 C 5,0 C 95 % 15 lf 1004,4 hPa 0,0 l/m 0 min 2 min 0 W/m 39,7 km/h (6 Bft) 95,74 %
18.03.2017 03:18 6,3 C 6,1 C 5,0 C 95 % 15 lf 1004,4 hPa 0,0 l/m 0 min 2 min 0 W/m 46,0 km/h (6 Bft) 93,62 %
18.03.2017 03:20 6,3 C 6,1 C 5,0 C 95 % 15 lf 1004,4 hPa 0,0 l/m 0 min 2 min 0 W/m 54,4 km/h (7 Bft) 97,87 %
18.03.2017 03:22 6,3 C 6,1 C 5,0 C 95 % 15 lf 1004,2 hPa 0,0 l/m 0 min 2 min 0 W/m 43,9 km/h (6 Bft) 95,65 %
18.03.2017 03:24 6,3 C 6,1 C 5,0 C 95 % 15 lf 1004,1 hPa 0,0 l/m 0 min 2 min 0 W/m 33,5 km/h (5 Bft) 97,87 %
18.03.2017 03:26 6,3 C 6,1 C 5,0 C 95 % 15 lf 1004,1 hPa 0,0 l/m 0 min 0 min 0 W/m 43,9 km/h (6 Bft) 93,62 %
18.03.2017 03:28 6,4 C 6,1 C 5,0 C 95 % 15 lf 1004,1 hPa 0,0 l/m 0 min 2 min 0 W/m 41,8 km/h (6 Bft) 97,87 %
18.03.2017 03:30 6,3 C 6,1 C 5,0 C 95 % 15 lf 1004,2 hPa 0,0 l/m 0 min 2 min 0 W/m 52,3 km/h (7 Bft) 93,62 %
18.03.2017 03:32 6,4 C 6,1 C 5,0 C 95 % 15 lf 1004,0 hPa 0,0 l/m 0 min 2 min 0 W/m 60,7 km/h (7 Bft) 97,87 %
18.03.2017 03:34 6,4 C 6,1 C 5,0 C 95 % 15 lf 1004,1 hPa 0,0 l/m 0 min 2 min 0 W/m 39,7 km/h (6 Bft) 95,74 %
18.03.2017 03:36 6,4 C 6,1 C 5,0 C 95 % 15 lf 1004,3 hPa 0,0 l/m 0 min 2 min 0 W/m 48,1 km/h (6 Bft) 94,44 %
18.03.2017 03:38 6,4 C 6,1 C 5,0 C 95 % 15 lf 1004,2 hPa 0,0 l/m 0 min 2 min 0 W/m 41,8 km/h (6 Bft) 93,62 %
18.03.2017 03:40 6,4 C 6,1 C 5,0 C 95 % 15 lf 1004,2 hPa 0,0 l/m 0 min 2 min 0 W/m 35,6 km/h (5 Bft) 93,62 %
18.03.2017 03:42 6,4 C 6,1 C 5,0 C 95 % 15 lf 1004,1 hPa 0,0 l/m 0 min 2 min 0 W/m 46,0 km/h (6 Bft) 93,75 %
18.03.2017 03:44 6,4 C 6,1 C 5,0 C 95 % 15 lf 1004,1 hPa 0,0 l/m 0 min 2 min 0 W/m 39,7 km/h (6 Bft) 91,49 %
18.03.2017 03:46 6,4 C 6,1 C 5,0 C 95 % 15 lf 1004,0 hPa 0,0 l/m 0 min 2 min 0 W/m 35,6 km/h (5 Bft) 95,65 %
18.03.2017 03:48 6,4 C 6,1 C 5,0 C 95 % 15 lf 1004,0 hPa 0,0 l/m 0 min 2 min 0 W/m 48,1 km/h (6 Bft) 93,62 %
18.03.2017 03:50 6,4 C 6,1 C 5,0 C 95 % 15 lf 1004,2 hPa 0,0 l/m 0 min 2 min 0 W/m 37,7 km/h (5 Bft) 95,74 %
18.03.2017 03:52 6,5 C 6,1 C 5,0 C 95 % 15 lf 1004,1 hPa 0,2 l/m 0 min 2 min 0 W/m 43,9 km/h (6 Bft) 95,74 %
18.03.2017 03:54 6,5 C 6,1 C 5,0 C 95 % 15 lf 1004,0 hPa 0,0 l/m 0 min 2 min 0 W/m 43,9 km/h (6 Bft) 93,62 %
18.03.2017 03:56 6,5 C 6,1 C 5,0 C 95 % 15 lf 1004,1 hPa 0,0 l/m 0 min 2 min 0 W/m 52,3 km/h (7 Bft) 93,48 %
18.03.2017 03:58 6,6 C 6,1 C 5,0 C 95 % 15 lf 1003,9 hPa 0,0 l/m 0 min 2 min 0 W/m 52,3 km/h (7 Bft) 91,49 %
18.03.2017 04:00 6,6 C 6,1 C 5,0 C 95 % 15 lf 1003,9 hPa 0,0 l/m 0 min 2 min 0 W/m 43,9 km/h (6 Bft) 95,74 %
18.03.2017 04:02 6,6 C 6,1 C 5,0 C 95 % 15 lf 1003,8 hPa 0,0 l/m 0 min 2 min 0 W/m 41,8 km/h (6 Bft) 100,00 %
18.03.2017 04:04 6,6 C 6,1 C 5,0 C 95 % 15 lf 1003,8 hPa 0,0 l/m 0 min 2 min 0 W/m 54,4 km/h (7 Bft) 95,74 %
18.03.2017 04:06 6,6 C 6,1 C 5,0 C 95 % 15 lf 1003,7 hPa 0,0 l/m 0 min 2 min 0 W/m 43,9 km/h (6 Bft) 96,55 %
18.03.2017 04:08 6,6 C 6,1 C 5,0 C 96 % 15 lf 1003,9 hPa 0,0 l/m 0 min 2 min 0 W/m 41,8 km/h (6 Bft) 91,49 %
18.03.2017 04:10 6,6 C 6,1 C 5,0 C 96 % 15 lf 1004,0 hPa 0,0 l/m 0 min 2 min 0 W/m 39,7 km/h (6 Bft) 95,74 %
18.03.2017 04:12 6,6 C 6,1 C 5,0 C 96 % 15 lf 1003,7 hPa 0,0 l/m 0 min 2 min 0 W/m 37,7 km/h (5 Bft) 94,29 %
18.03.2017 04:14 6,7 C 6,7 C 5,0 C 96 % 15 lf 1003,8 hPa 0,0 l/m 0 min 2 min 0 W/m 35,6 km/h (5 Bft) 95,74 %
18.03.2017 04:16 6,7 C 6,7 C 5,0 C 96 % 15 lf 1003,7 hPa 0,0 l/m 0 min 2 min 0 W/m 39,7 km/h (6 Bft) 91,49 %
18.03.2017 04:18 6,7 C 6,7 C 5,0 C 96 % 15 lf 1003,8 hPa 0,0 l/m 0 min 2 min 0 W/m 46,0 km/h (6 Bft) 97,87 %
18.03.2017 04:20 6,7 C 6,7 C 5,0 C 96 % 15 lf 1003,9 hPa 0,0 l/m 0 min 2 min 0 W/m 35,6 km/h (5 Bft) 97,87 %
18.03.2017 04:22 6,7 C 6,7 C 5,0 C 96 % 15 lf 1003,8 hPa 0,0 l/m 0 min 2 min 0 W/m 39,7 km/h (6 Bft) 95,65 %
18.03.2017 04:24 6,7 C 6,7 C 5,0 C 96 % 15 lf 1003,7 hPa 0,0 l/m 0 min 0 min 0 W/m 43,9 km/h (6 Bft) 97,87 %
18.03.2017 04:26 6,7 C 6,7 C 5,0 C 96 % 15 lf 1003,7 hPa 0,0 l/m 0 min 2 min 0 W/m 48,1 km/h (6 Bft) 100,00 %
18.03.2017 04:28 6,7 C 6,7 C 5,0 C 96 % 15 lf 1003,7 hPa 0,0 l/m 0 min 2 min 0 W/m 48,1 km/h (6 Bft) 97,87 %
18.03.2017 04:30 6,7 C 6,7 C 5,0 C 96 % 15 lf 1003,7 hPa 0,0 l/m 0 min 2 min 0 W/m 46,0 km/h (6 Bft) 97,87 %
18.03.2017 04:32 6,8 C 6,7 C 5,0 C 96 % 15 lf 1003,8 hPa 0,0 l/m 0 min 2 min 0 W/m 43,9 km/h (6 Bft) 98,08 %
18.03.2017 04:34 6,8 C 6,7 C 5,0 C 96 % 15 lf 1003,8 hPa 0,0 l/m 0 min 2 min 0 W/m 39,7 km/h (6 Bft) 100,00 %
18.03.2017 04:36 6,8 C 6,7 C 5,0 C 96 % 15 lf 1003,8 hPa 0,0 l/m 0 min 2 min 0 W/m 37,7 km/h (5 Bft) 100,00 %
18.03.2017 04:38 6,8 C 6,7 C 5,6 C 96 % 15 lf 1003,7 hPa 0,0 l/m 0 min 2 min 0 W/m 35,6 km/h (5 Bft) 97,87 %
18.03.2017 04:40 6,8 C 6,7 C 5,6 C 96 % 15 lf 1003,7 hPa 0,0 l/m 0 min 2 min 0 W/m 43,9 km/h (6 Bft) 100,00 %
18.03.2017 04:42 6,8 C 6,7 C 5,6 C 96 % 15 lf 1003,7 hPa 0,0 l/m 0 min 2 min 0 W/m 35,6 km/h (5 Bft) 100,00 %
18.03.2017 04:44 6,8 C 6,7 C 5,6 C 96 % 15 lf 1003,5 hPa 0,0 l/m 0 min 2 min 0 W/m 33,5 km/h (5 Bft) 95,65 %
18.03.2017 04:46 6,8 C 6,7 C 5,6 C 96 % 15 lf 1003,6 hPa 0,0 l/m 0 min 2 min 0 W/m 37,7 km/h (5 Bft) 97,87 %
18.03.2017 04:48 6,8 C 6,7 C 5,6 C 96 % 15 lf 1003,7 hPa 0,2 l/m 0 min 2 min 0 W/m 35,6 km/h (5 Bft) 100,00 %
18.03.2017 04:50 6,8 C 6,7 C 5,6 C 96 % 15 lf 1003,7 hPa 0,0 l/m 0 min 2 min 0 W/m 46,0 km/h (6 Bft) 100,00 %
18.03.2017 04:52 6,9 C 6,7 C 5,6 C 96 % 15 lf 1003,6 hPa 0,0 l/m 0 min 2 min 0 W/m 39,7 km/h (6 Bft) 100,00 %
18.03.2017 04:54 6,9 C 6,7 C 5,6 C 96 % 15 lf 1003,4 hPa 0,0 l/m 0 min 2 min 0 W/m 43,9 km/h (6 Bft) 100,00 %
18.03.2017 04:56 6,9 C 6,7 C 5,6 C 96 % 15 lf 1003,5 hPa 0,0 l/m 0 min 2 min 0 W/m 50,2 km/h (7 Bft) 97,83 %
18.03.2017 04:58 6,9 C 6,7 C 5,6 C 96 % 15 lf 1003,5 hPa 0,0 l/m 0 min 2 min 0 W/m 33,5 km/h (5 Bft) 95,74 %
18.03.2017 05:00 6,9 C 6,7 C 5,6 C 96 % 15 lf 1003,5 hPa 0,0 l/m 0 min 2 min 0 W/m 35,6 km/h (5 Bft) 100,00 %
18.03.2017 05:02 6,9 C 6,7 C 5,6 C 96 % 15 lf 1003,4 hPa 0,0 l/m 0 min 2 min 0 W/m 27,2 km/h (4 Bft) 97,96 %
18.03.2017 05:04 6,9 C 6,7 C 5,6 C 96 % 15 lf 1003,5 hPa 0,0 l/m 0 min 0 min 0 W/m 46,0 km/h (6 Bft) 100,00 %
18.03.2017 05:06 6,9 C 6,7 C 5,6 C 96 % 15 lf 1003,4 hPa 0,0 l/m 0 min 2 min 0 W/m 43,9 km/h (6 Bft) 97,37 %
18.03.2017 05:08 6,9 C 6,7 C 5,6 C 96 % 15 lf 1003,4 hPa 0,0 l/m 0 min 2 min 0 W/m 35,6 km/h (5 Bft) 95,65 %
18.03.2017 05:10 6,9 C 6,7 C 5,6 C 96 % 15 lf 1003,3 hPa 0,0 l/m 0 min 2 min 0 W/m 46,0 km/h (6 Bft) 95,74 %
18.03.2017 05:12 6,9 C 6,7 C 5,6 C 96 % 15 lf 1003,3 hPa 0,0 l/m 0 min 2 min 0 W/m 46,0 km/h (6 Bft) 97,87 %
18.03.2017 05:14 7,0 C 6,7 C 5,6 C 96 % 15 lf 1003,3 hPa 0,0 l/m 0 min 2 min 0 W/m 43,9 km/h (6 Bft) 91,49 %
18.03.2017 05:16 7,0 C 6,7 C 5,6 C 96 % 15 lf 1003,4 hPa 0,0 l/m 0 min 2 min 0 W/m 37,7 km/h (5 Bft) 97,87 %
18.03.2017 05:18 7,0 C 6,7 C 5,6 C 96 % 15 lf 1003,4 hPa 0,0 l/m 0 min 2 min 0 W/m 35,6 km/h (5 Bft) 97,87 %
18.03.2017 05:20 7,0 C 6,7 C 5,6 C 96 % 15 lf 1003,4 hPa 0,0 l/m 0 min 2 min 0 W/m 52,3 km/h (7 Bft) 95,65 %
18.03.2017 05:22 7,0 C 6,7 C 5,6 C 96 % 15 lf 1003,4 hPa 0,0 l/m 0 min 2 min 0 W/m 46,0 km/h (6 Bft) 97,87 %
18.03.2017 05:24 7,1 C 6,7 C 5,6 C 96 % 15 lf 1003,4 hPa 0,0 l/m 0 min 2 min 0 W/m 35,6 km/h (5 Bft) 95,74 %
18.03.2017 05:26 7,1 C 6,7 C 5,6 C 96 % 15 lf 1003,3 hPa 0,0 l/m 0 min 2 min 0 W/m 39,7 km/h (6 Bft) 95,74 %
18.03.2017 05:28 7,1 C 6,7 C 5,6 C 96 % 15 lf 1003,4 hPa 0,0 l/m 0 min 2 min 0 W/m 37,7 km/h (5 Bft) 97,87 %
18.03.2017 05:30 7,1 C 6,7 C 5,6 C 96 % 15 lf 1003,4 hPa 0,0 l/m 0 min 2 min 0 W/m 46,0 km/h (6 Bft) 93,62 %
18.03.2017 05:32 7,1 C 6,7 C 5,6 C 96 % 15 lf 1003,5 hPa 0,0 l/m 0 min 2 min 0 W/m 37,7 km/h (5 Bft) 97,83 %
18.03.2017 05:34 7,1 C 6,7 C 5,6 C 96 % 15 lf 1003,5 hPa 0,0 l/m 0 min 2 min 0 W/m 43,9 km/h (6 Bft) 97,87 %
18.03.2017 05:36 7,1 C 7,2 C 5,6 C 96 % 15 lf 1003,4 hPa 0,0 l/m 0 min 2 min 0 W/m 31,4 km/h (5 Bft) 94,55 %
18.03.2017 05:38 7,1 C 7,2 C 5,6 C 96 % 15 lf 1003,3 hPa 0,0 l/m 0 min 2 min 0 W/m 35,6 km/h (5 Bft) 95,74 %
18.03.2017 05:40 7,2 C 7,2 C 5,6 C 96 % 15 lf 1003,4 hPa 0,0 l/m 0 min 2 min 0 W/m 35,6 km/h (5 Bft) 91,49 %
18.03.2017 05:42 7,2 C 7,2 C 5,6 C 96 % 15 lf 1003,4 hPa 0,0 l/m 0 min 2 min 0 W/m 43,9 km/h (6 Bft) 93,62 %
18.03.2017 05:44 7,2 C 7,2 C 5,6 C 96 % 15 lf 1003,4 hPa 0,0 l/m 0 min 2 min 0 W/m 39,7 km/h (6 Bft) 89,36 %
18.03.2017 05:46 7,2 C 7,2 C 5,6 C 96 % 15 lf 1003,4 hPa 0,0 l/m 0 min 2 min 0 W/m 33,5 km/h (5 Bft) 91,49 %
18.03.2017 05:48 7,2 C 7,2 C 5,6 C 96 % 15 lf 1003,4 hPa 0,0 l/m 0 min 2 min 0 W/m 37,7 km/h (5 Bft) 95,74 %
18.03.2017 05:50 7,2 C 7,2 C 5,6 C 96 % 15 lf 1003,1 hPa 0,0 l/m 0 min 2 min 0 W/m 37,7 km/h (5 Bft) 93,62 %
18.03.2017 05:52 7,2 C 7,2 C 5,6 C 97 % 15 lf 1003,3 hPa 0,0 l/m 0 min 2 min 0 W/m 29,3 km/h (5 Bft) 48,84 %
18.03.2017 05:54 7,2 C 7,2 C 5,6 C 97 % 15 lf 1003,3 hPa 0,0 l/m 0 min 2 min 0 W/m 31,4 km/h (5 Bft) 97,83 %
18.03.2017 05:56 7,2 C 7,2 C 5,6 C 97 % 15 lf 1003,3 hPa 0,0 l/m 0 min 2 min 0 W/m 43,9 km/h (6 Bft) 93,62 %
18.03.2017 05:58 7,2 C 7,2 C 6,1 C 97 % 15 lf 1003,4 hPa 0,0 l/m 0 min 2 min 0 W/m 37,7 km/h (5 Bft) 93,62 %
18.03.2017 06:00 7,3 C 7,2 C 6,1 C 97 % 15 lf 1003,4 hPa 0,0 l/m 0 min 2 min 0 W/m 37,7 km/h (5 Bft) 93,62 %
18.03.2017 06:02 7,3 C 7,2 C 6,1 C 97 % 15 lf 1003,5 hPa 0,0 l/m 0 min 2 min 0 W/m 37,7 km/h (5 Bft) 93,62 %
18.03.2017 06:04 7,3 C 7,2 C 6,1 C 97 % 15 lf 1003,5 hPa 0,0 l/m 0 min 2 min 0 W/m 39,7 km/h (6 Bft) 91,49 %
18.03.2017 06:06 7,3 C 7,2 C 6,1 C 97 % 15 lf 1003,5 hPa 0,0 l/m 0 min 2 min 0 W/m 31,4 km/h (5 Bft) 89,80 %
18.03.2017 06:08 7,3 C 7,2 C 6,1 C 97 % 15 lf 1003,5 hPa 0,0 l/m 0 min 2 min 0 W/m 29,3 km/h (5 Bft) 91,49 %
18.03.2017 06:10 7,3 C 7,2 C 6,1 C 97 % 15 lf 1003,5 hPa 0,0 l/m 0 min 2 min 0 W/m 37,7 km/h (5 Bft) 93,62 %
18.03.2017 06:12 7,3 C 7,2 C 6,1 C 97 % 15 lf 1003,5 hPa 0,0 l/m 0 min 2 min 0 W/m 31,4 km/h (5 Bft) 100,00 %
18.03.2017 06:14 7,4 C 7,2 C 6,1 C 97 % 15 lf 1003,4 hPa 0,2 l/m 0 min 2 min 0 W/m 39,7 km/h (6 Bft) 93,62 %
18.03.2017 06:16 7,4 C 7,2 C 6,1 C 97 % 15 lf 1003,4 hPa 0,0 l/m 0 min 2 min 0 W/m 39,7 km/h (6 Bft) 91,49 %
18.03.2017 06:18 7,4 C 7,2 C 6,1 C 97 % 15 lf 1003,4 hPa 0,0 l/m 0 min 2 min 0 W/m 46,0 km/h (6 Bft) 97,83 %
18.03.2017 06:20 7,4 C 7,2 C 6,1 C 97 % 15 lf 1003,5 hPa 0,0 l/m 0 min 2 min 0 W/m 31,4 km/h (5 Bft) 95,74 %
18.03.2017 06:22 7,4 C 7,2 C 6,1 C 97 % 15 lf 1003,4 hPa 0,0 l/m 0 min 2 min 0 W/m 37,7 km/h (5 Bft) 97,87 %
18.03.2017 06:24 7,4 C 7,2 C 6,1 C 97 % 15 lf 1003,6 hPa 0,0 l/m 0 min 2 min 0 W/m 39,7 km/h (6 Bft) 95,74 %
18.03.2017 06:26 7,4 C 7,2 C 6,1 C 97 % 15 lf 1003,7 hPa 0,0 l/m 0 min 2 min 0 W/m 31,4 km/h (5 Bft) 97,87 %
18.03.2017 06:28 7,4 C 7,2 C 6,1 C 97 % 15 lf 1003,7 hPa 0,0 l/m 0 min 2 min 0 W/m 35,6 km/h (5 Bft) 100,00 %
18.03.2017 06:30 7,5 C 7,2 C 6,1 C 97 % 15 lf 1003,8 hPa 0,0 l/m 0 min 2 min 0 W/m 39,7 km/h (6 Bft) 97,83 %
18.03.2017 06:32 7,5 C 7,2 C 6,1 C 97 % 15 lf 1003,8 hPa 0,0 l/m 0 min 2 min 0 W/m 37,7 km/h (5 Bft) 95,74 %
18.03.2017 06:34 7,5 C 7,2 C 6,1 C 97 % 15 lf 1003,8 hPa 0,0 l/m 0 min 2 min 0 W/m 37,7 km/h (5 Bft) 95,74 %
18.03.2017 06:36 7,5 C 7,2 C 6,1 C 97 % 15 lf 1003,9 hPa 0,2 l/m 0 min 2 min 0 W/m 35,6 km/h (5 Bft) 94,55 %
18.03.2017 06:38 7,5 C 7,2 C 6,1 C 97 % 15 lf 1003,9 hPa 0,0 l/m 0 min 2 min 0 W/m 35,6 km/h (5 Bft) 95,74 %
18.03.2017 06:40 7,6 C 7,2 C 6,1 C 97 % 15 lf 1003,9 hPa 0,0 l/m 0 min 2 min 0 W/m 35,6 km/h (5 Bft) 97,83 %
18.03.2017 06:42 7,6 C 7,2 C 6,1 C 97 % 15 lf 1003,9 hPa 0,0 l/m 0 min 2 min 0 W/m 41,8 km/h (6 Bft) 97,87 %
18.03.2017 06:44 7,6 C 7,2 C 6,1 C 97 % 15 lf 1004,0 hPa 0,0 l/m 0 min 2 min 0 W/m 35,6 km/h (5 Bft) 93,62 %
18.03.2017 06:46 7,6 C 7,2 C 6,1 C 97 % 15 lf 1003,9 hPa 0,0 l/m 0 min 2 min 0 W/m 31,4 km/h (5 Bft) 95,74 %
18.03.2017 06:48 7,6 C 7,8 C 6,1 C 97 % 15 lf 1003,9 hPa 0,0 l/m 0 min 2 min 0 W/m 39,7 km/h (6 Bft) 97,87 %
18.03.2017 06:50 7,6 C 7,8 C 6,1 C 97 % 15 lf 1004,0 hPa 0,0 l/m 0 min 2 min 0 W/m 48,1 km/h (6 Bft) 95,74 %
18.03.2017 06:52 7,7 C 7,8 C 6,1 C 97 % 15 lf 1004,1 hPa 0,2 l/m 0 min 2 min 3 W/m 35,6 km/h (5 Bft) 97,83 %
18.03.2017 06:54 7,7 C 7,8 C 6,1 C 97 % 15 lf 1004,0 hPa 0,0 l/m 0 min 2 min 5 W/m 31,4 km/h (5 Bft) 97,87 %
18.03.2017 06:56 7,7 C 7,8 C 6,1 C 97 % 15 lf 1003,9 hPa 0,0 l/m 0 min 2 min 5 W/m 39,7 km/h (6 Bft) 95,74 %
18.03.2017 06:58 7,7 C 7,8 C 6,1 C 97 % 15 lf 1004,0 hPa 0,0 l/m 0 min 2 min 5 W/m 29,3 km/h (5 Bft) 97,87 %
18.03.2017 07:00 7,7 C 7,8 C 6,7 C 97 % 15 lf 1004,1 hPa 0,0 l/m 0 min 2 min 5 W/m 37,7 km/h (5 Bft) 97,87 %
18.03.2017 07:02 7,7 C 7,8 C 6,7 C 97 % 15 lf 1004,1 hPa 0,0 l/m 0 min 2 min 5 W/m 31,4 km/h (5 Bft) 97,87 %
18.03.2017 07:04 7,7 C 7,8 C 6,7 C 97 % 15 lf 1004,1 hPa 0,2 l/m 0 min 2 min 7 W/m 29,3 km/h (5 Bft) 97,87 %
18.03.2017 07:06 7,7 C 7,8 C 6,7 C 97 % 15 lf 1004,0 hPa 0,0 l/m 0 min 2 min 7 W/m 29,3 km/h (5 Bft) 94,74 %
18.03.2017 07:08 7,8 C 7,8 C 6,7 C 97 % 15 lf 1004,1 hPa 0,0 l/m 0 min 2 min 8 W/m 29,3 km/h (5 Bft) 97,87 %
18.03.2017 07:10 7,8 C 7,8 C 6,7 C 97 % 15 lf 1004,1 hPa 0,0 l/m 0 min 2 min 9 W/m 31,4 km/h (5 Bft) 93,62 %
18.03.2017 07:12 7,8 C 7,8 C 6,7 C 97 % 15 lf 1004,1 hPa 0,0 l/m 0 min 2 min 9 W/m 39,7 km/h (6 Bft) 97,87 %
18.03.2017 07:14 7,8 C 7,8 C 6,7 C 97 % 15 lf 1004,1 hPa 0,0 l/m 0 min 2 min 9 W/m 27,2 km/h (4 Bft) 95,74 %
18.03.2017 07:16 7,8 C 7,8 C 6,7 C 97 % 15 lf 1004,2 hPa 0,0 l/m 0 min 2 min 11 W/m 31,4 km/h (5 Bft) 97,83 %
18.03.2017 07:18 7,8 C 7,8 C 6,7 C 97 % 15 lf 1004,0 hPa 0,0 l/m 0 min 2 min 11 W/m 31,4 km/h (5 Bft) 91,49 %
18.03.2017 07:20 7,9 C 7,8 C 6,7 C 97 % 15 lf 1004,1 hPa 0,2 l/m 0 min 2 min 11 W/m 31,4 km/h (5 Bft) 97,87 %
18.03.2017 07:22 7,9 C 7,8 C 6,7 C 97 % 15 lf 1004,2 hPa 0,0 l/m 0 min 2 min 12 W/m 25,1 km/h (4 Bft) 100,00 %
18.03.2017 07:24 7,9 C 7,8 C 6,7 C 97 % 15 lf 1004,2 hPa 0,0 l/m 0 min 2 min 12 W/m 31,4 km/h (5 Bft) 97,87 %
18.03.2017 07:26 7,9 C 7,8 C 6,7 C 97 % 15 lf 1004,2 hPa 0,0 l/m 0 min 2 min 12 W/m 37,7 km/h (5 Bft) 97,87 %
18.03.2017 07:28 7,9 C 7,8 C 6,7 C 97 % 15 lf 1004,2 hPa 0,2 l/m 0 min 2 min 14 W/m 35,6 km/h (5 Bft) 95,65 %
18.03.2017 07:30 7,9 C 7,8 C 6,7 C 97 % 15 lf 1004,3 hPa 0,0 l/m 0 min 2 min 15 W/m 23,0 km/h (4 Bft) 97,87 %
18.03.2017 07:32 8,0 C 7,8 C 6,7 C 97 % 15 lf 1004,3 hPa 0,0 l/m 0 min 2 min 17 W/m 33,5 km/h (5 Bft) 97,87 %
18.03.2017 07:34 8,0 C 7,8 C 6,7 C 97 % 15 lf 1004,3 hPa 0,0 l/m 0 min 2 min 19 W/m 37,7 km/h (5 Bft) 95,74 %
18.03.2017 07:36 8,0 C 7,8 C 6,7 C 98 % 15 lf 1004,2 hPa 0,0 l/m 0 min 2 min 18 W/m 48,1 km/h (6 Bft) 96,36 %
18.03.2017 07:38 8,1 C 7,8 C 6,7 C 98 % 15 lf 1004,2 hPa 0,0 l/m 0 min 2 min 16 W/m 37,7 km/h (5 Bft) 95,65 %
18.03.2017 07:40 8,1 C 7,8 C 6,7 C 98 % 15 lf 1004,2 hPa 0,0 l/m 0 min 2 min 14 W/m 43,9 km/h (6 Bft) 97,87 %
18.03.2017 07:42 8,1 C 7,8 C 6,7 C 98 % 15 lf 1004,3 hPa 0,0 l/m 0 min 2 min 16 W/m 29,3 km/h (5 Bft) 97,87 %
18.03.2017 07:44 8,1 C 8,3 C 6,7 C 98 % 15 lf 1004,3 hPa 0,2 l/m 0 min 2 min 18 W/m 27,2 km/h (4 Bft) 97,87 %
18.03.2017 07:46 8,1 C 8,3 C 6,7 C 98 % 15 lf 1004,2 hPa 0,0 l/m 0 min 2 min 19 W/m 37,7 km/h (5 Bft) 97,87 %
18.03.2017 07:48 8,2 C 8,3 C 6,7 C 98 % 15 lf 1004,2 hPa 0,0 l/m 0 min 2 min 23 W/m 31,4 km/h (5 Bft) 95,74 %
18.03.2017 07:50 8,2 C 8,3 C 6,7 C 98 % 15 lf 1004,2 hPa 0,2 l/m 0 min 2 min 21 W/m 43,9 km/h (6 Bft) 97,83 %
18.03.2017 07:52 8,2 C 8,3 C 7,2 C 97 % 15 lf 1004,3 hPa 0,0 l/m 0 min 2 min 21 W/m 33,5 km/h (5 Bft) 95,74 %
18.03.2017 07:54 8,2 C 8,3 C 7,2 C 97 % 15 lf 1004,4 hPa 0,0 l/m 0 min 2 min 24 W/m 31,4 km/h (5 Bft) 97,87 %
18.03.2017 07:56 8,2 C 8,3 C 7,2 C 97 % 15 lf 1004,3 hPa 0,0 l/m 0 min 2 min 29 W/m 35,6 km/h (5 Bft) 95,74 %
18.03.2017 07:58 8,3 C 8,3 C 7,2 C 97 % 15 lf 1004,3 hPa 0,0 l/m 0 min 2 min 31 W/m 41,8 km/h (6 Bft) 97,87 %
18.03.2017 08:00 8,3 C 8,3 C 7,2 C 98 % 15 lf 1004,3 hPa 0,0 l/m 0 min 2 min 32 W/m 35,6 km/h (5 Bft) 100,00 %
18.03.2017 08:02 8,3 C 8,3 C 7,2 C 98 % 15 lf 1004,3 hPa 0,0 l/m 0 min 2 min 31 W/m 33,5 km/h (5 Bft) 95,74 %
18.03.2017 08:04 8,3 C 8,3 C 7,2 C 98 % 15 lf 1004,2 hPa 0,0 l/m 0 min 2 min 30 W/m 33,5 km/h (5 Bft) 100,00 %
18.03.2017 08:06 8,3 C 8,3 C 7,2 C 98 % 15 lf 1004,3 hPa 0,2 l/m 0 min 2 min 26 W/m 33,5 km/h (5 Bft) 94,74 %
18.03.2017 08:08 8,4 C 8,3 C 7,2 C 98 % 15 lf 1004,3 hPa 0,0 l/m 0 min 2 min 28 W/m 31,4 km/h (5 Bft) 97,87 %
18.03.2017 08:10 8,4 C 8,3 C 7,2 C 98 % 15 lf 1004,4 hPa 0,0 l/m 0 min 2 min 29 W/m 33,5 km/h (5 Bft) 97,87 %
18.03.2017 08:12 8,4 C 8,3 C 7,2 C 98 % 15 lf 1004,5 hPa 0,0 l/m 0 min 2 min 26 W/m 33,5 km/h (5 Bft) 100,00 %
18.03.2017 08:14 8,4 C 8,3 C 7,2 C 98 % 15 lf 1004,5 hPa 0,0 l/m 0 min 2 min 24 W/m 35,6 km/h (5 Bft) 97,87 %
18.03.2017 08:16 8,4 C 8,3 C 7,2 C 98 % 15 lf 1004,5 hPa 0,0 l/m 0 min 2 min 24 W/m 27,2 km/h (4 Bft) 97,83 %
18.03.2017 08:18 8,4 C 8,3 C 7,2 C 98 % 15 lf 1004,5 hPa 0,0 l/m 0 min 2 min 26 W/m 29,3 km/h (5 Bft) 95,74 %
18.03.2017 08:20 8,4 C 8,3 C 7,2 C 98 % 15 lf 1004,6 hPa 0,0 l/m 0 min 2 min 25 W/m 27,2 km/h (4 Bft) 97,87 %
18.03.2017 08:22 8,4 C 8,3 C 7,2 C 98 % 15 lf 1004,6 hPa 0,0 l/m 0 min 2 min 25 W/m 35,6 km/h (5 Bft) 97,87 %
18.03.2017 08:24 8,5 C 8,3 C 7,2 C 98 % 15 lf 1004,7 hPa 0,2 l/m 0 min 2 min 26 W/m 35,6 km/h (5 Bft) 97,87 %
18.03.2017 08:26 8,5 C 8,3 C 7,2 C 98 % 15 lf 1004,6 hPa 0,0 l/m 0 min 2 min 27 W/m 39,7 km/h (6 Bft) 95,65 %
18.03.2017 08:28 8,5 C 8,3 C 7,2 C 98 % 15 lf 1004,7 hPa 0,0 l/m 0 min 2 min 29 W/m 35,6 km/h (5 Bft) 97,87 %
18.03.2017 08:30 8,6 C 8,3 C 7,2 C 98 % 15 lf 1004,7 hPa 0,0 l/m 0 min 2 min 32 W/m 29,3 km/h (5 Bft) 95,74 %
18.03.2017 08:32 8,6 C 8,3 C 7,2 C 98 % 15 lf 1004,7 hPa 0,0 l/m 0 min 2 min 32 W/m 31,4 km/h (5 Bft) 93,62 %
18.03.2017 08:34 8,6 C 8,3 C 7,2 C 98 % 15 lf 1004,7 hPa 0,0 l/m 0 min 2 min 32 W/m 29,3 km/h (5 Bft) 95,74 %
18.03.2017 08:36 8,6 C 8,3 C 7,2 C 98 % 15 lf 1004,8 hPa 0,0 l/m 0 min 2 min 29 W/m 29,3 km/h (5 Bft) 98,18 %
18.03.2017 08:38 8,6 C 8,3 C 7,2 C 98 % 15 lf 1004,8 hPa 0,0 l/m 0 min 2 min 31 W/m 33,5 km/h (5 Bft) 95,65 %
18.03.2017 08:40 8,7 C 8,9 C 7,2 C 98 % 15 lf 1004,8 hPa 0,0 l/m 0 min 2 min 34 W/m 29,3 km/h (5 Bft) 97,87 %
18.03.2017 08:42 8,7 C 8,9 C 7,2 C 98 % 15 lf 1004,7 hPa 0,0 l/m 0 min 2 min 39 W/m 33,5 km/h (5 Bft) 93,75 %
18.03.2017 08:44 8,7 C 8,9 C 7,2 C 98 % 15 lf 1004,7 hPa 0,0 l/m 0 min 2 min 32 W/m 39,7 km/h (6 Bft) 97,87 %
18.03.2017 08:46 8,7 C 8,9 C 7,8 C 98 % 15 lf 1004,8 hPa 0,0 l/m 0 min 2 min 32 W/m 46,0 km/h (6 Bft) 93,62 %
18.03.2017 08:48 8,7 C 8,9 C 7,8 C 98 % 15 lf 1004,7 hPa 0,2 l/m 0 min 2 min 36 W/m 33,5 km/h (5 Bft) 97,83 %
18.03.2017 08:50 8,8 C 8,9 C 7,8 C 98 % 15 lf 1004,7 hPa 0,0 l/m 0 min 2 min 42 W/m 29,3 km/h (5 Bft) 97,87 %
18.03.2017 08:52 8,8 C 8,9 C 7,8 C 98 % 15 lf 1004,8 hPa 0,0 l/m 0 min 2 min 36 W/m 31,4 km/h (5 Bft) 97,87 %
18.03.2017 08:54 8,8 C 8,9 C 7,8 C 98 % 15 lf 1004,8 hPa 0,0 l/m 0 min 2 min 35 W/m 23,0 km/h (4 Bft) 97,87 %
18.03.2017 08:56 8,8 C 8,9 C 7,8 C 98 % 15 lf 1004,8 hPa 0,0 l/m 0 min 2 min 39 W/m 41,8 km/h (6 Bft) 95,74 %
18.03.2017 08:58 8,9 C 8,9 C 7,8 C 98 % 15 lf 1004,8 hPa 0,0 l/m 0 min 2 min 40 W/m 27,2 km/h (4 Bft) 93,62 %
18.03.2017 09:00 8,9 C 8,9 C 7,8 C 98 % 15 lf 1004,8 hPa 0,0 l/m 0 min 2 min 39 W/m 25,1 km/h (4 Bft) 97,83 %
18.03.2017 09:02 8,9 C 8,9 C 7,8 C 98 % 15 lf 1004,8 hPa 0,0 l/m 0 min 2 min 52 W/m 27,2 km/h (4 Bft) 95,83 %
18.03.2017 09:04 8,9 C 8,9 C 7,8 C 98 % 15 lf 1004,9 hPa 0,0 l/m 0 min 2 min 46 W/m 29,3 km/h (5 Bft) 97,87 %
18.03.2017 09:06 8,9 C 8,9 C 7,8 C 98 % 15 lf 1004,9 hPa 0,0 l/m 0 min 2 min 35 W/m 25,1 km/h (4 Bft) 97,96 %
18.03.2017 09:08 9,0 C 8,9 C 7,8 C 98 % 15 lf 1004,9 hPa 0,0 l/m 0 min 2 min 38 W/m 23,0 km/h (4 Bft) 94,29 %
18.03.2017 09:10 9,0 C 8,9 C 7,8 C 98 % 15 lf 1004,9 hPa 0,0 l/m 0 min 2 min 43 W/m 29,3 km/h (5 Bft) 96,55 %
18.03.2017 09:12 9,0 C 8,9 C 7,8 C 98 % 15 lf 1004,9 hPa 0,0 l/m 0 min 2 min 52 W/m 27,2 km/h (4 Bft) 97,22 %
18.03.2017 09:14 9,1 C 8,9 C 7,8 C 98 % 15 lf 1004,9 hPa 0,0 l/m 0 min 2 min 43 W/m 27,2 km/h (4 Bft) 95,65 %
18.03.2017 09:16 9,1 C 9,4 C 7,8 C 98 % 15 lf 1005,0 hPa 0,2 l/m 0 min 2 min 39 W/m 25,1 km/h (4 Bft) 89,36 %
18.03.2017 09:18 9,1 C 9,4 C 7,8 C 98 % 15 lf 1005,0 hPa 0,0 l/m 0 min 2 min 45 W/m 23,0 km/h (4 Bft) 91,49 %
18.03.2017 09:20 9,1 C 9,4 C 7,8 C 98 % 15 lf 1005,1 hPa 0,0 l/m 0 min 2 min 42 W/m 20,9 km/h (4 Bft) 95,74 %
18.03.2017 09:22 9,1 C 9,4 C 7,8 C 98 % 15 lf 1005,1 hPa 0,0 l/m 0 min 2 min 44 W/m 31,4 km/h (5 Bft) 93,62 %
18.03.2017 09:24 9,2 C 9,4 C 7,8 C 98 % 15 lf 1005,1 hPa 0,0 l/m 0 min 2 min 44 W/m 33,5 km/h (5 Bft) 89,36 %
18.03.2017 09:26 9,2 C 9,4 C 7,8 C 98 % 15 lf 1005,1 hPa 0,0 l/m 0 min 2 min 38 W/m 23,0 km/h (4 Bft) 89,13 %
18.03.2017 09:28 9,2 C 9,4 C 7,8 C 98 % 15 lf 1005,1 hPa 0,0 l/m 0 min 2 min 41 W/m 23,0 km/h (4 Bft) 93,62 %
18.03.2017 09:30 9,2 C 9,4 C 7,8 C 98 % 15 lf 1005,0 hPa 0,0 l/m 0 min 2 min 45 W/m 27,2 km/h (4 Bft) 91,49 %
18.03.2017 09:32 9,2 C 9,4 C 8,3 C 98 % 15 lf 1005,1 hPa 0,0 l/m 0 min 2 min 49 W/m 29,3 km/h (5 Bft) 94,34 %
18.03.2017 09:34 9,3 C 9,4 C 8,3 C 98 % 15 lf 1005,2 hPa 0,0 l/m 0 min 2 min 45 W/m 20,9 km/h (4 Bft) 93,62 %
18.03.2017 09:36 9,3 C 9,4 C 8,3 C 98 % 15 lf 1005,1 hPa 0,0 l/m 0 min 2 min 39 W/m 20,9 km/h (4 Bft) 91,84 %
18.03.2017 09:38 9,3 C 9,4 C 8,3 C 98 % 15 lf 1005,1 hPa 0,0 l/m 0 min 2 min 43 W/m 31,4 km/h (5 Bft) 91,49 %
18.03.2017 09:40 9,3 C 9,4 C 8,3 C 98 % 15 lf 1005,2 hPa 0,0 l/m 0 min 2 min 45 W/m 18,8 km/h (3 Bft) 93,62 %
18.03.2017 09:42 9,3 C 9,4 C 8,3 C 98 % 15 lf 1005,2 hPa 0,0 l/m 0 min 2 min 48 W/m 31,4 km/h (5 Bft) 89,58 %
18.03.2017 09:44 9,4 C 9,4 C 8,3 C 98 % 15 lf 1005,2 hPa 0,0 l/m 0 min 2 min 50 W/m 29,3 km/h (5 Bft) 93,62 %
18.03.2017 09:46 9,4 C 9,4 C 8,3 C 98 % 15 lf 1005,2 hPa 0,0 l/m 0 min 2 min 47 W/m 18,8 km/h (3 Bft) 93,48 %
18.03.2017 09:48 9,4 C 9,4 C 8,3 C 98 % 15 lf 1005,2 hPa 0,0 l/m 0 min 2 min 50 W/m 18,8 km/h (3 Bft) 95,74 %
18.03.2017 09:50 9,4 C 9,4 C 8,3 C 98 % 15 lf 1005,3 hPa 0,0 l/m 0 min 2 min 44 W/m 20,9 km/h (4 Bft) 89,36 %
18.03.2017 09:52 9,5 C 9,4 C 8,3 C 98 % 15 lf 1005,4 hPa 0,0 l/m 0 min 2 min 55 W/m 23,0 km/h (4 Bft) 93,75 %
18.03.2017 09:54 9,5 C 9,4 C 8,3 C 98 % 15 lf 1005,4 hPa 0,0 l/m 0 min 2 min 53 W/m 25,1 km/h (4 Bft) 91,49 %
18.03.2017 09:56 9,5 C 9,4 C 8,3 C 98 % 15 lf 1005,5 hPa 0,0 l/m 0 min 2 min 48 W/m 20,9 km/h (4 Bft) 93,62 %
18.03.2017 09:58 9,6 C 9,4 C 8,3 C 98 % 15 lf 1005,4 hPa 0,0 l/m 0 min 2 min 46 W/m 18,8 km/h (3 Bft) 93,48 %
18.03.2017 10:00 9,6 C 9,4 C 8,3 C 98 % 15 lf 1005,4 hPa 0,0 l/m 0 min 2 min 49 W/m 27,2 km/h (4 Bft) 93,62 %
18.03.2017 10:02 9,6 C 9,4 C 8,3 C 98 % 15 lf 1005,5 hPa 0,0 l/m 0 min 2 min 45 W/m 23,0 km/h (4 Bft) 93,62 %
18.03.2017 10:04 9,6 C 9,4 C 8,3 C 98 % 15 lf 1005,5 hPa 0,0 l/m 0 min 2 min 43 W/m 25,1 km/h (4 Bft) 93,62 %
18.03.2017 10:06 9,6 C 9,4 C 8,3 C 98 % 15 lf 1005,6 hPa 0,0 l/m 0 min 2 min 37 W/m 14,6 km/h (3 Bft) 94,44 %
18.03.2017 10:08 9,7 C 10,0 C 8,3 C 98 % 15 lf 1005,6 hPa 0,2 l/m 0 min 2 min 36 W/m 18,8 km/h (3 Bft) 89,36 %
18.03.2017 10:10 9,7 C 10,0 C 8,3 C 98 % 15 lf 1005,5 hPa 0,0 l/m 0 min 2 min 40 W/m 18,8 km/h (3 Bft) 95,74 %
18.03.2017 10:12 9,7 C 10,0 C 8,3 C 98 % 15 lf 1005,5 hPa 0,0 l/m 0 min 2 min 41 W/m 18,8 km/h (3 Bft) 89,13 %
18.03.2017 10:14 9,7 C 10,0 C 8,9 C 98 % 15 lf 1005,4 hPa 0,0 l/m 0 min 2 min 59 W/m 20,9 km/h (4 Bft) 100,00 %
18.03.2017 10:16 9,7 C 10,0 C 8,9 C 98 % 15 lf 1005,4 hPa 0,0 l/m 0 min 2 min 89 W/m 25,1 km/h (4 Bft) 100,00 %
18.03.2017 10:18 9,7 C 10,0 C 8,9 C 98 % 15 lf 1005,4 hPa 0,0 l/m 0 min 2 min 70 W/m 20,9 km/h (4 Bft) 100,00 %
18.03.2017 10:20 9,8 C 10,0 C 8,9 C 98 % 15 lf 1005,5 hPa 0,0 l/m 0 min 2 min 62 W/m 18,8 km/h (3 Bft) 95,74 %
18.03.2017 10:22 9,8 C 10,0 C 8,9 C 98 % 15 lf 1005,3 hPa 0,0 l/m 0 min 2 min 86 W/m 20,9 km/h (4 Bft) 97,87 %
18.03.2017 10:24 9,8 C 10,0 C 8,9 C 98 % 15 lf 1005,3 hPa 0,0 l/m 0 min 2 min 99 W/m 23,0 km/h (4 Bft) 97,83 %
18.03.2017 10:26 9,9 C 10,0 C 8,9 C 98 % 15 lf 1005,3 hPa 0,0 l/m 0 min 2 min 94 W/m 25,1 km/h (4 Bft) 100,00 %
18.03.2017 10:28 9,9 C 10,0 C 8,9 C 98 % 15 lf 1005,4 hPa 0,0 l/m 0 min 2 min 100 W/m 31,4 km/h (5 Bft) 97,87 %
18.03.2017 10:30 9,9 C 10,0 C 8,9 C 98 % 15 lf 1005,5 hPa 0,0 l/m 0 min 2 min 103 W/m 23,0 km/h (4 Bft) 97,87 %
18.03.2017 10:32 10,0 C 10,6 C 8,9 C 98 % 15 lf 1005,5 hPa 0,0 l/m 0 min 2 min 88 W/m 23,0 km/h (4 Bft) 97,87 %
18.03.2017 10:34 10,0 C 10,6 C 8,9 C 98 % 15 lf 1005,4 hPa 0,0 l/m 0 min 2 min 87 W/m 25,1 km/h (4 Bft) 100,00 %
18.03.2017 10:36 10,0 C 10,6 C 8,9 C 98 % 15 lf 1005,3 hPa 0,0 l/m 0 min 2 min 87 W/m 20,9 km/h (4 Bft) 98,15 %
18.03.2017 10:38 10,1 C 10,0 C 8,9 C 98 % 15 lf 1005,2 hPa 0,0 l/m 0 min 2 min 88 W/m 25,1 km/h (4 Bft) 95,74 %
18.03.2017 10:40 10,1 C 10,0 C 8,9 C 98 % 15 lf 1005,4 hPa 0,0 l/m 0 min 2 min 69 W/m 31,4 km/h (5 Bft) 97,87 %
18.03.2017 10:42 10,1 C 10,0 C 8,9 C 98 % 15 lf 1005,4 hPa 0,0 l/m 0 min 2 min 62 W/m 27,2 km/h (4 Bft) 100,00 %
18.03.2017 10:44 10,1 C 10,0 C 8,9 C 98 % 15 lf 1005,4 hPa 0,0 l/m 0 min 2 min 65 W/m 27,2 km/h (4 Bft) 100,00 %
18.03.2017 10:46 10,1 C 10,0 C 8,9 C 98 % 15 lf 1005,4 hPa 0,0 l/m 0 min 2 min 62 W/m 31,4 km/h (5 Bft) 100,00 %
18.03.2017 10:48 10,1 C 10,0 C 8,9 C 98 % 15 lf 1005,6 hPa 0,0 l/m 0 min 2 min 59 W/m 27,2 km/h (4 Bft) 100,00 %
18.03.2017 10:50 10,1 C 10,0 C 8,9 C 98 % 15 lf 1005,6 hPa 0,0 l/m 0 min 2 min 62 W/m 18,8 km/h (3 Bft) 100,00 %
18.03.2017 10:52 10,1 C 10,0 C 8,9 C 98 % 15 lf 1005,7 hPa 0,0 l/m 0 min 2 min 64 W/m 23,0 km/h (4 Bft) 95,74 %
18.03.2017 10:54 10,1 C 10,0 C 8,9 C 98 % 15 lf 1005,7 hPa 0,0 l/m 0 min 2 min 56 W/m 27,2 km/h (4 Bft) 97,87 %
18.03.2017 10:56 10,1 C 10,0 C 8,9 C 98 % 15 lf 1005,7 hPa 0,0 l/m 0 min 2 min 51 W/m 23,0 km/h (4 Bft) 100,00 %
18.03.2017 10:58 10,1 C 10,0 C 8,9 C 98 % 15 lf 1005,7 hPa 0,0 l/m 0 min 2 min 56 W/m 14,6 km/h (3 Bft) 100,00 %
18.03.2017 11:00 10,2 C 10,6 C 8,9 C 98 % 15 lf 1005,7 hPa 0,0 l/m 0 min 2 min 73 W/m 25,1 km/h (4 Bft) 97,87 %
18.03.2017 11:02 10,2 C 10,6 C 8,9 C 98 % 15 lf 1005,8 hPa 0,0 l/m 0 min 2 min 70 W/m 20,9 km/h (4 Bft) 95,92 %
18.03.2017 11:04 10,2 C 10,6 C 8,9 C 98 % 15 lf 1005,7 hPa 0,0 l/m 0 min 2 min 59 W/m 16,7 km/h (3 Bft) 100,00 %
18.03.2017 11:07 10,2 C 10,6 C 8,9 C 98 % 15 lf 1005,6 hPa 0,0 l/m 0 min 2 min 70 W/m 25,1 km/h (4 Bft) 98,59 %
18.03.2017 11:08 10,2 C 10,6 C 9,4 C 98 % 15 lf 1005,6 hPa 0,0 l/m 0 min 1 min 73 W/m 20,9 km/h (4 Bft) 100,00 %
18.03.2017 11:10 10,2 C 10,6 C 9,4 C 98 % 15 lf 1005,6 hPa 0,0 l/m 0 min 2 min 64 W/m 20,9 km/h (4 Bft) 100,00 %
18.03.2017 11:12 10,2 C 10,6 C 9,4 C 98 % 15 lf 1005,6 hPa 0,0 l/m 0 min 2 min 75 W/m 18,8 km/h (3 Bft) 93,62 %
18.03.2017 11:14 10,3 C 10,6 C 9,4 C 98 % 15 lf 1005,7 hPa 0,0 l/m 0 min 2 min 65 W/m 27,2 km/h (4 Bft) 95,74 %
18.03.2017 11:16 10,3 C 10,6 C 9,4 C 98 % 15 lf 1005,7 hPa 0,0 l/m 0 min 2 min 51 W/m 23,0 km/h (4 Bft) 91,49 %
18.03.2017 11:18 10,3 C 10,6 C 9,4 C 98 % 15 lf 1005,7 hPa 0,0 l/m 0 min 2 min 85 W/m 25,1 km/h (4 Bft) 93,62 %
18.03.2017 11:20 10,3 C 10,6 C 9,4 C 98 % 15 lf 1005,7 hPa 0,0 l/m 0 min 2 min 87 W/m 29,3 km/h (5 Bft) 91,49 %
18.03.2017 11:22 10,3 C 10,6 C 9,4 C 98 % 15 lf 1005,7 hPa 0,0 l/m 0 min 2 min 57 W/m 23,0 km/h (4 Bft) 95,65 %
18.03.2017 11:24 10,3 C 10,6 C 9,4 C 98 % 15 lf 1005,7 hPa 0,0 l/m 0 min 2 min 57 W/m 23,0 km/h (4 Bft) 93,62 %
18.03.2017 11:26 10,3 C 10,6 C 9,4 C 98 % 15 lf 1005,8 hPa 0,0 l/m 0 min 2 min 63 W/m 20,9 km/h (4 Bft) 95,74 %
18.03.2017 11:28 10,3 C 10,6 C 9,4 C 98 % 15 lf 1005,8 hPa 0,0 l/m 0 min 2 min 67 W/m 29,3 km/h (5 Bft) 93,62 %
18.03.2017 11:30 10,4 C 10,6 C 9,4 C 98 % 15 lf 1005,8 hPa 0,0 l/m 0 min 2 min 59 W/m 14,6 km/h (3 Bft) 91,49 %
18.03.2017 11:32 10,4 C 10,6 C 9,4 C 98 % 15 lf 1005,9 hPa 0,0 l/m 0 min 2 min 60 W/m 18,8 km/h (3 Bft) 87,23 %
18.03.2017 11:34 10,4 C 10,6 C 9,4 C 98 % 15 lf 1005,8 hPa 0,0 l/m 0 min 2 min 74 W/m 20,9 km/h (4 Bft) 95,65 %
18.03.2017 11:35 10,4 C 10,6 C 9,4 C 98 % 15 lf 1005,8 hPa 0,0 l/m 0 min 1 min 84 W/m 16,7 km/h (3 Bft) 100,00 %
18.03.2017 11:36 10,4 C 10,6 C 9,4 C 98 % 15 lf 1005,8 hPa 0,0 l/m 0 min 1 min 84 W/m 16,7 km/h (3 Bft) 95,65 %
18.03.2017 11:38 10,4 C 10,6 C 9,4 C 98 % 15 lf 1005,8 hPa 0,0 l/m 0 min 2 min 103 W/m 20,9 km/h (4 Bft) 95,92 %
18.03.2017 11:40 10,5 C 11,1 C 10,0 C 98 % 15 lf 1005,9 hPa 0,0 l/m 0 min 2 min 116 W/m 18,8 km/h (3 Bft) 94,92 %
18.03.2017 11:42 10,5 C 10,6 C 9,4 C 98 % 15 lf 1005,9 hPa 0,0 l/m 0 min 2 min 102 W/m 27,2 km/h (4 Bft) 93,62 %
18.03.2017 11:44 10,6 C 10,6 C 9,4 C 98 % 15 lf 1005,9 hPa 0,0 l/m 0 min 2 min 97 W/m 16,7 km/h (3 Bft) 95,74 %
18.03.2017 11:46 10,6 C 11,1 C 10,0 C 98 % 15 lf 1005,9 hPa 0,0 l/m 0 min 2 min 112 W/m 23,0 km/h (4 Bft) 95,65 %
18.03.2017 11:48 10,6 C 11,1 C 10,0 C 98 % 15 lf 1005,8 hPa 0,0 l/m 0 min 2 min 136 W/m 25,1 km/h (4 Bft) 97,87 %
18.03.2017 11:50 10,6 C 11,1 C 10,0 C 98 % 15 lf 1005,8 hPa 0,0 l/m 0 min 2 min 155 W/m 20,9 km/h (4 Bft) 92,45 %
18.03.2017 11:52 10,7 C 11,1 C 10,0 C 98 % 15 lf 1005,8 hPa 0,0 l/m 0 min 2 min 151 W/m 25,1 km/h (4 Bft) 95,12 %
18.03.2017 11:54 10,7 C 11,1 C 10,6 C 98 % 15 lf 1005,8 hPa 0,0 l/m 0 min 2 min 140 W/m 23,0 km/h (4 Bft) 95,74 %
18.03.2017 11:56 10,8 C 11,1 C 10,6 C 98 % 15 lf 1005,8 hPa 0,0 l/m 0 min 2 min 131 W/m 20,9 km/h (4 Bft) 97,87 %
18.03.2017 11:58 10,8 C 11,1 C 10,6 C 98 % 15 lf 1005,9 hPa 0,0 l/m 0 min 2 min 113 W/m 20,9 km/h (4 Bft) 97,83 %
18.03.2017 12:00 10,8 C 11,1 C 10,6 C 98 % 15 lf 1005,8 hPa 0,0 l/m 0 min 2 min 109 W/m 20,9 km/h (4 Bft) 100,00 %
18.03.2017 12:02 10,8 C 11,1 C 10,0 C 98 % 15 lf 1005,9 hPa 0,0 l/m 0 min 2 min 76 W/m 23,0 km/h (4 Bft) 95,74 %
18.03.2017 12:04 10,8 C 11,1 C 10,0 C 98 % 15 lf 1005,9 hPa 0,0 l/m 0 min 2 min 66 W/m 25,1 km/h (4 Bft) 100,00 %
18.03.2017 12:06 10,8 C 11,1 C 10,0 C 98 % 15 lf 1005,9 hPa 0,0 l/m 0 min 2 min 80 W/m 20,9 km/h (4 Bft) 97,87 %
18.03.2017 12:08 10,8 C 11,1 C 10,0 C 98 % 15 lf 1005,9 hPa 0,0 l/m 0 min 2 min 83 W/m 25,1 km/h (4 Bft) 100,00 %
18.03.2017 12:10 10,8 C 11,1 C 10,0 C 98 % 15 lf 1005,8 hPa 0,0 l/m 0 min 2 min 98 W/m 29,3 km/h (5 Bft) 95,74 %
18.03.2017 12:12 10,9 C 11,1 C 10,0 C 98 % 15 lf 1005,9 hPa 0,0 l/m 0 min 2 min 99 W/m 23,0 km/h (4 Bft) 97,87 %
18.03.2017 12:14 10,9 C 11,1 C 10,0 C 98 % 15 lf 1005,9 hPa 0,0 l/m 0 min 2 min 82 W/m 35,6 km/h (5 Bft) 97,87 %
18.03.2017 12:16 10,9 C 11,1 C 10,0 C 98 % 15 lf 1005,9 hPa 0,0 l/m 0 min 2 min 101 W/m 16,7 km/h (3 Bft) 97,83 %
18.03.2017 12:18 10,9 C 11,1 C 10,0 C 98 % 15 lf 1005,9 hPa 0,0 l/m 0 min 2 min 109 W/m 23,0 km/h (4 Bft) 97,87 %
18.03.2017 12:20 10,9 C 11,1 C 10,0 C 98 % 15 lf 1006,0 hPa 0,0 l/m 0 min 2 min 84 W/m 18,8 km/h (3 Bft) 93,62 %
18.03.2017 12:22 10,9 C 11,1 C 10,0 C 98 % 15 lf 1005,9 hPa 0,0 l/m 0 min 2 min 103 W/m 18,8 km/h (3 Bft) 100,00 %
18.03.2017 12:24 10,9 C 11,1 C 10,0 C 98 % 15 lf 1005,9 hPa 0,0 l/m 0 min 2 min 92 W/m 33,5 km/h (5 Bft) 97,87 %
18.03.2017 12:26 10,9 C 11,1 C 10,0 C 98 % 15 lf 1005,8 hPa 0,0 l/m 0 min 2 min 56 W/m 25,1 km/h (4 Bft) 95,74 %
18.03.2017 12:28 10,9 C 11,1 C 10,0 C 98 % 15 lf 1005,9 hPa 0,0 l/m 0 min 2 min 58 W/m 20,9 km/h (4 Bft) 97,83 %
18.03.2017 12:30 10,9 C 11,1 C 10,0 C 98 % 15 lf 1006,0 hPa 0,0 l/m 0 min 2 min 58 W/m 25,1 km/h (4 Bft) 95,74 %
18.03.2017 12:32 10,9 C 11,1 C 10,0 C 98 % 15 lf 1005,9 hPa 0,0 l/m 0 min 2 min 64 W/m 18,8 km/h (3 Bft) 97,87 %
18.03.2017 12:34 10,9 C 11,1 C 10,0 C 98 % 15 lf 1005,9 hPa 0,0 l/m 0 min 2 min 82 W/m 20,9 km/h (4 Bft) 95,74 %
18.03.2017 12:36 10,9 C 11,1 C 10,0 C 98 % 15 lf 1006,0 hPa 0,0 l/m 0 min 2 min 90 W/m 12,6 km/h (3 Bft) 93,62 %
18.03.2017 12:38 10,9 C 11,1 C 10,0 C 98 % 15 lf 1005,9 hPa 0,0 l/m 0 min 2 min 88 W/m 33,5 km/h (5 Bft) 97,83 %
18.03.2017 12:40 10,9 C 11,1 C 10,0 C 98 % 15 lf 1006,0 hPa 0,0 l/m 0 min 2 min 85 W/m 25,1 km/h (4 Bft) 95,74 %
18.03.2017 12:42 11,0 C 11,1 C 10,0 C 98 % 15 lf 1006,1 hPa 0,0 l/m 0 min 0 min 90 W/m 23,0 km/h (4 Bft) 95,74 %
18.03.2017 12:44 11,0 C 11,1 C 10,0 C 98 % 15 lf 1006,1 hPa 0,0 l/m 0 min 0 min 111 W/m 25,1 km/h (4 Bft) 97,87 %
18.03.2017 12:46 11,0 C 11,1 C 10,0 C 98 % 15 lf 1006,1 hPa 0,0 l/m 0 min 0 min 104 W/m 16,7 km/h (3 Bft) 97,87 %
18.03.2017 12:48 11,1 C 11,1 C 10,0 C 98 % 15 lf 1006,0 hPa 0,0 l/m 0 min 0 min 107 W/m 29,3 km/h (5 Bft) 97,87 %
18.03.2017 12:50 11,1 C 11,7 C 10,6 C 98 % 15 lf 1006,0 hPa 0,0 l/m 0 min 0 min 123 W/m 16,7 km/h (3 Bft) 97,83 %
18.03.2017 12:52 11,1 C 11,7 C 10,6 C 98 % 15 lf 1006,1 hPa 0,0 l/m 0 min 0 min 131 W/m 25,1 km/h (4 Bft) 97,87 %
18.03.2017 12:54 11,1 C 11,7 C 10,6 C 98 % 15 lf 1006,1 hPa 0,0 l/m 0 min 2 min 121 W/m 18,8 km/h (3 Bft) 93,62 %
18.03.2017 12:56 11,2 C 11,7 C 10,6 C 98 % 15 lf 1006,2 hPa 0,0 l/m 0 min 0 min 142 W/m 23,0 km/h (4 Bft) 97,87 %
18.03.2017 12:58 11,2 C 11,7 C 10,6 C 98 % 15 lf 1006,1 hPa 0,0 l/m 0 min 2 min 146 W/m 27,2 km/h (4 Bft) 89,36 %
18.03.2017 13:00 11,2 C 12,2 C 10,6 C 98 % 15 lf 1006,1 hPa 0,0 l/m 0 min 2 min 160 W/m 20,9 km/h (4 Bft) 95,74 %
18.03.2017 13:02 11,3 C 11,7 C 10,6 C 98 % 15 lf 1006,2 hPa 0,0 l/m 0 min 2 min 171 W/m 35,6 km/h (5 Bft) 95,65 %
18.03.2017 13:04 11,3 C 12,2 C 10,6 C 98 % 15 lf 1006,2 hPa 0,0 l/m 0 min 2 min 149 W/m 20,9 km/h (4 Bft) 93,62 %
18.03.2017 13:06 11,3 C 12,2 C 10,6 C 98 % 15 lf 1006,2 hPa 0,0 l/m 0 min 2 min 153 W/m 27,2 km/h (4 Bft) 97,87 %
18.03.2017 13:08 11,3 C 12,2 C 10,6 C 98 % 15 lf 1006,1 hPa 0,0 l/m 0 min 2 min 122 W/m 25,1 km/h (4 Bft) 93,62 %
18.03.2017 13:10 11,4 C 12,2 C 11,1 C 98 % 15 lf 1006,2 hPa 0,0 l/m 0 min 0 min 148 W/m 23,0 km/h (4 Bft) 94,00 %
18.03.2017 13:12 11,4 C 12,2 C 11,1 C 98 % 15 lf 1006,2 hPa 0,0 l/m 0 min 2 min 217 W/m 27,2 km/h (4 Bft) 93,62 %
18.03.2017 13:14 11,4 C 12,8 C 11,7 C 98 % 15 lf 1006,1 hPa 0,0 l/m 0 min 0 min 247 W/m 23,0 km/h (4 Bft) 91,30 %
18.03.2017 13:16 11,5 C 12,8 C 11,7 C 98 % 15 lf 1006,3 hPa 0,0 l/m 0 min 2 min 190 W/m 20,9 km/h (4 Bft) 95,74 %
18.03.2017 13:18 11,6 C 12,8 C 11,7 C 98 % 15 lf 1006,2 hPa 0,0 l/m 0 min 0 min 177 W/m 18,8 km/h (3 Bft) 89,36 %
18.03.2017 13:20 11,6 C 12,8 C 11,7 C 98 % 15 lf 1006,2 hPa 0,0 l/m 0 min 0 min 198 W/m 23,0 km/h (4 Bft) 95,74 %
18.03.2017 13:22 11,7 C 12,8 C 11,7 C 98 % 15 lf 1006,2 hPa 0,0 l/m 0 min 0 min 216 W/m 23,0 km/h (4 Bft) 91,49 %
18.03.2017 13:24 11,7 C 12,8 C 11,7 C 98 % 13 lf 1006,1 hPa 0,0 l/m 0 min 0 min 227 W/m 33,5 km/h (5 Bft) 93,48 %
18.03.2017 13:26 11,7 C 13,3 C 12,2 C 98 % 12 lf 1006,2 hPa 0,0 l/m 0 min 0 min 270 W/m 23,0 km/h (4 Bft) 95,74 %
18.03.2017 13:28 11,8 C 13,9 C 12,2 C 98 % 13 lf 1006,1 hPa 0,0 l/m 0 min 0 min 278 W/m 27,2 km/h (4 Bft) 91,49 %
18.03.2017 13:30 11,8 C 13,9 C 11,7 C 98 % 13 lf 1006,1 hPa 0,0 l/m 0 min 2 min 283 W/m 35,6 km/h (5 Bft) 91,49 %
18.03.2017 13:32 11,8 C 13,3 C 11,7 C 98 % 12 lf 1006,1 hPa 0,0 l/m 0 min 2 min 243 W/m 29,3 km/h (5 Bft) 93,62 %
18.03.2017 13:34 11,8 C 13,3 C 11,7 C 98 % 13 lf 1006,0 hPa 0,0 l/m 0 min 2 min 218 W/m 37,7 km/h (5 Bft) 95,74 %
18.03.2017 13:36 11,9 C 13,3 C 11,7 C 98 % 14 lf 1006,1 hPa 0,0 l/m 0 min 0 min 222 W/m 31,4 km/h (5 Bft) 95,65 %
18.03.2017 13:38 11,9 C 12,8 C 11,7 C 97 % 14 lf 1006,0 hPa 0,0 l/m 0 min 0 min 184 W/m 23,0 km/h (4 Bft) 95,74 %
18.03.2017 13:40 11,9 C 12,8 C 11,1 C 98 % 15 lf 1006,0 hPa 0,0 l/m 0 min 0 min 154 W/m 27,2 km/h (4 Bft) 93,62 %
18.03.2017 13:42 11,9 C 12,2 C 11,1 C 97 % 15 lf 1006,0 hPa 0,0 l/m 0 min 2 min 194 W/m 25,1 km/h (4 Bft) 97,87 %
18.03.2017 13:44 11,9 C 12,2 C 11,1 C 97 % 15 lf 1006,0 hPa 0,0 l/m 0 min 2 min 174 W/m 25,1 km/h (4 Bft) 97,87 %
18.03.2017 13:46 11,9 C 12,2 C 11,1 C 97 % 15 lf 1006,1 hPa 0,2 l/m 0 min 2 min 179 W/m 23,0 km/h (4 Bft) 97,87 %
18.03.2017 13:48 11,9 C 11,7 C 11,1 C 97 % 15 lf 1006,1 hPa 0,0 l/m 0 min 2 min 126 W/m 25,1 km/h (4 Bft) 93,48 %
18.03.2017 13:50 11,9 C 11,7 C 11,1 C 97 % 15 lf 1006,1 hPa 0,0 l/m 0 min 2 min 128 W/m 29,3 km/h (5 Bft) 97,87 %
18.03.2017 13:52 11,9 C 11,7 C 10,6 C 97 % 15 lf 1006,1 hPa 0,0 l/m 0 min 2 min 99 W/m 23,0 km/h (4 Bft) 95,74 %
18.03.2017 13:54 11,8 C 11,7 C 10,6 C 97 % 15 lf 1006,1 hPa 0,0 l/m 0 min 2 min 96 W/m 23,0 km/h (4 Bft) 95,74 %
18.03.2017 13:56 11,8 C 11,7 C 10,6 C 97 % 15 lf 1006,1 hPa 0,0 l/m 0 min 2 min 102 W/m 23,0 km/h (4 Bft) 95,74 %
18.03.2017 13:58 11,8 C 11,7 C 10,6 C 97 % 15 lf 1006,1 hPa 0,0 l/m 0 min 2 min 130 W/m 27,2 km/h (4 Bft) 97,87 %
18.03.2017 14:00 11,8 C 11,7 C 10,6 C 97 % 15 lf 1006,0 hPa 0,0 l/m 0 min 2 min 144 W/m 18,8 km/h (3 Bft) 97,83 %
18.03.2017 14:02 11,8 C 11,7 C 10,6 C 97 % 15 lf 1006,1 hPa 0,2 l/m 0 min 0 min 111 W/m 23,0 km/h (4 Bft) 93,62 %
18.03.2017 14:04 11,8 C 11,7 C 10,6 C 97 % 15 lf 1006,3 hPa 0,0 l/m 0 min 0 min 92 W/m 16,7 km/h (3 Bft) 93,62 %
18.03.2017 14:06 11,8 C 11,7 C 10,6 C 97 % 15 lf 1006,3 hPa 0,0 l/m 0 min 0 min 106 W/m 20,9 km/h (4 Bft) 91,49 %
18.03.2017 14:08 11,8 C 11,7 C 10,6 C 97 % 15 lf 1006,4 hPa 0,0 l/m 0 min 0 min 105 W/m 27,2 km/h (4 Bft) 97,87 %
18.03.2017 14:10 11,7 C 11,7 C 10,6 C 97 % 15 lf 1006,5 hPa 0,0 l/m 0 min 2 min 89 W/m 31,4 km/h (5 Bft) 97,87 %
18.03.2017 14:12 11,7 C 11,7 C 10,6 C 97 % 15 lf 1006,5 hPa 0,0 l/m 0 min 2 min 77 W/m 43,9 km/h (6 Bft) 93,48 %
18.03.2017 14:14 11,7 C 11,7 C 10,6 C 97 % 15 lf 1006,5 hPa 0,0 l/m 0 min 0 min 68 W/m 18,8 km/h (3 Bft) 97,87 %
18.03.2017 14:16 11,6 C 11,7 C 10,0 C 97 % 15 lf 1006,4 hPa 0,0 l/m 0 min 0 min 81 W/m 33,5 km/h (5 Bft) 97,87 %
18.03.2017 14:18 11,6 C 11,7 C 10,6 C 97 % 15 lf 1006,3 hPa 0,0 l/m 0 min 0 min 115 W/m 27,2 km/h (4 Bft) 97,87 %
18.03.2017 14:20 11,6 C 11,7 C 10,6 C 97 % 15 lf 1006,4 hPa 0,0 l/m 0 min 0 min 130 W/m 20,9 km/h (4 Bft) 97,87 %
18.03.2017 14:22 11,6 C 11,7 C 10,6 C 97 % 15 lf 1006,3 hPa 0,0 l/m 0 min 0 min 145 W/m 23,0 km/h (4 Bft) 91,43 %
18.03.2017 14:24 11,6 C 12,2 C 11,1 C 97 % 15 lf 1006,3 hPa 0,0 l/m 0 min 0 min 153 W/m 14,6 km/h (3 Bft) 95,74 %
18.03.2017 14:26 11,6 C 12,2 C 11,1 C 97 % 15 lf 1006,3 hPa 0,0 l/m 0 min 0 min 150 W/m 27,2 km/h (4 Bft) 97,87 %
18.03.2017 14:28 11,7 C 12,2 C 11,1 C 97 % 15 lf 1006,5 hPa 0,0 l/m 0 min 0 min 133 W/m 25,1 km/h (4 Bft) 95,74 %
18.03.2017 14:30 11,7 C 11,7 C 10,6 C 97 % 15 lf 1006,5 hPa 0,0 l/m 0 min 0 min 101 W/m 25,1 km/h (4 Bft) 93,48 %
18.03.2017 14:32 11,7 C 11,7 C 10,6 C 97 % 15 lf 1006,4 hPa 0,0 l/m 0 min 0 min 97 W/m 18,8 km/h (3 Bft) 95,74 %
18.03.2017 14:34 11,7 C 12,2 C 10,6 C 97 % 15 lf 1006,4 hPa 0,0 l/m 0 min 0 min 111 W/m 31,4 km/h (5 Bft) 95,74 %
18.03.2017 14:36 11,7 C 11,7 C 10,6 C 97 % 15 lf 1006,4 hPa 0,0 l/m 0 min 0 min 119 W/m 35,6 km/h (5 Bft) 95,74 %
18.03.2017 14:38 11,7 C 12,2 C 10,6 C 97 % 15 lf 1006,5 hPa 0,0 l/m 0 min 0 min 127 W/m 29,3 km/h (5 Bft) 93,62 %
18.03.2017 14:40 11,7 C 12,2 C 11,1 C 97 % 15 lf 1006,4 hPa 0,0 l/m 0 min 0 min 163 W/m 27,2 km/h (4 Bft) 95,65 %
18.03.2017 14:42 11,7 C 12,8 C 11,7 C 97 % 15 lf 1006,4 hPa 0,0 l/m 0 min 0 min 256 W/m 31,4 km/h (5 Bft) 97,87 %
18.03.2017 14:44 11,7 C 12,8 C 11,7 C 97 % 15 lf 1006,4 hPa 0,0 l/m 0 min 0 min 240 W/m 31,4 km/h (5 Bft) 97,87 %
18.03.2017 14:46 11,8 C 12,8 C 11,7 C 97 % 15 lf 1006,5 hPa 0,0 l/m 0 min 0 min 239 W/m 25,1 km/h (4 Bft) 95,74 %
18.03.2017 14:48 11,8 C 12,8 C 11,7 C 97 % 15 lf 1006,5 hPa 0,0 l/m 2 min 0 min 260 W/m 23,0 km/h (4 Bft) 95,74 %
18.03.2017 14:50 11,9 C 12,8 C 11,7 C 97 % 15 lf 1006,5 hPa 0,0 l/m 0 min 0 min 219 W/m 29,3 km/h (5 Bft) 98,28 %
18.03.2017 14:52 11,9 C 12,8 C 11,7 C 97 % 15 lf 1006,4 hPa 0,0 l/m 0 min 0 min 155 W/m 23,0 km/h (4 Bft) 97,14 %
18.03.2017 14:54 11,9 C 12,8 C 11,1 C 97 % 15 lf 1006,4 hPa 0,0 l/m 0 min 0 min 130 W/m 23,0 km/h (4 Bft) 97,87 %
18.03.2017 14:56 12,0 C 12,2 C 11,1 C 97 % 15 lf 1006,5 hPa 0,0 l/m 0 min 0 min 120 W/m 25,1 km/h (4 Bft) 93,62 %
18.03.2017 14:58 12,0 C 12,2 C 11,1 C 97 % 15 lf 1006,5 hPa 0,0 l/m 0 min 0 min 125 W/m 23,0 km/h (4 Bft) 95,74 %
18.03.2017 15:00 12,0 C 12,2 C 11,1 C 97 % 15 lf 1006,6 hPa 0,0 l/m 0 min 0 min 117 W/m 27,2 km/h (4 Bft) 97,87 %
18.03.2017 15:02 12,0 C 12,2 C 11,1 C 96 % 15 lf 1006,6 hPa 0,0 l/m 0 min 0 min 106 W/m 27,2 km/h (4 Bft) 97,87 %
18.03.2017 15:04 12,0 C 12,2 C 11,1 C 96 % 15 lf 1006,6 hPa 0,0 l/m 0 min 0 min 94 W/m 20,9 km/h (4 Bft) 97,83 %
18.03.2017 15:06 12,0 C 12,2 C 11,1 C 96 % 15 lf 1006,6 hPa 0,0 l/m 0 min 0 min 101 W/m 20,9 km/h (4 Bft) 97,87 %
18.03.2017 15:08 12,0 C 12,2 C 11,1 C 96 % 15 lf 1006,6 hPa 0,0 l/m 0 min 2 min 99 W/m 14,6 km/h (3 Bft) 97,87 %
18.03.2017 15:10 12,0 C 12,2 C 11,1 C 96 % 15 lf 1006,5 hPa 0,0 l/m 0 min 2 min 100 W/m 25,1 km/h (4 Bft) 95,74 %
18.03.2017 15:12 12,0 C 12,2 C 11,1 C 96 % 15 lf 1006,5 hPa 0,0 l/m 0 min 2 min 98 W/m 18,8 km/h (3 Bft) 95,74 %
18.03.2017 15:14 12,0 C 12,2 C 10,6 C 96 % 15 lf 1006,6 hPa 0,0 l/m 0 min 2 min 92 W/m 23,0 km/h (4 Bft) 91,49 %
18.03.2017 15:16 12,0 C 11,7 C 10,6 C 96 % 15 lf 1006,5 hPa 0,0 l/m 0 min 2 min 83 W/m 27,2 km/h (4 Bft) 93,48 %
18.03.2017 15:18 11,9 C 11,7 C 10,6 C 96 % 15 lf 1006,6 hPa 0,0 l/m 0 min 2 min 71 W/m 27,2 km/h (4 Bft) 95,74 %
18.03.2017 15:20 12,0 C 11,7 C 10,6 C 96 % 15 lf 1006,5 hPa 0,0 l/m 0 min 2 min 73 W/m 18,8 km/h (3 Bft) 96,61 %
18.03.2017 15:22 11,9 C 11,7 C 10,6 C 96 % 15 lf 1006,5 hPa 0,2 l/m 0 min 2 min 49 W/m 18,8 km/h (3 Bft) 91,43 %
18.03.2017 15:24 11,9 C 11,7 C 10,0 C 96 % 15 lf 1006,5 hPa 0,0 l/m 0 min 2 min 40 W/m 18,8 km/h (3 Bft) 95,74 %
18.03.2017 15:26 11,9 C 11,7 C 10,0 C 96 % 15 lf 1006,6 hPa 0,0 l/m 0 min 2 min 53 W/m 14,6 km/h (3 Bft) 95,74 %
18.03.2017 15:28 11,9 C 11,7 C 10,0 C 96 % 15 lf 1006,7 hPa 0,0 l/m 0 min 2 min 40 W/m 10,5 km/h (2 Bft) 95,65 %
18.03.2017 15:30 11,9 C 11,7 C 10,0 C 95 % 15 lf 1006,6 hPa 0,0 l/m 0 min 2 min 40 W/m 14,6 km/h (3 Bft) 95,74 %
18.03.2017 15:32 11,9 C 11,7 C 10,0 C 95 % 15 lf 1006,7 hPa 0,0 l/m 0 min 2 min 34 W/m 12,6 km/h (3 Bft) 93,62 %
18.03.2017 15:34 11,9 C 11,7 C 10,0 C 95 % 15 lf 1006,7 hPa 0,0 l/m 0 min 2 min 32 W/m 10,5 km/h (2 Bft) 91,49 %
18.03.2017 15:36 11,9 C 11,7 C 10,0 C 95 % 15 lf 1006,8 hPa 0,2 l/m 0 min 2 min 25 W/m 12,6 km/h (3 Bft) 97,87 %
18.03.2017 15:38 11,8 C 11,7 C 10,0 C 95 % 15 lf 1006,8 hPa 0,0 l/m 0 min 2 min 22 W/m 23,0 km/h (4 Bft) 97,87 %
18.03.2017 15:40 11,8 C 11,7 C 10,0 C 95 % 15 lf 1006,8 hPa 0,0 l/m 0 min 2 min 26 W/m 18,8 km/h (3 Bft) 97,83 %
18.03.2017 15:42 11,8 C 11,1 C 10,0 C 95 % 15 lf 1006,9 hPa 0,0 l/m 0 min 2 min 24 W/m 14,6 km/h (3 Bft) 93,62 %
18.03.2017 15:44 11,8 C 11,1 C 10,0 C 95 % 15 lf 1006,8 hPa 0,2 l/m 0 min 2 min 21 W/m 16,7 km/h (3 Bft) 95,74 %
18.03.2017 15:46 11,8 C 11,1 C 10,0 C 95 % 15 lf 1006,8 hPa 0,0 l/m 0 min 2 min 23 W/m 16,7 km/h (3 Bft) 97,87 %
18.03.2017 15:48 11,8 C 11,1 C 10,0 C 96 % 15 lf 1007,0 hPa 0,0 l/m 0 min 2 min 37 W/m 25,1 km/h (4 Bft) 93,62 %
18.03.2017 15:50 11,7 C 11,1 C 10,0 C 96 % 15 lf 1006,9 hPa 0,2 l/m 0 min 2 min 59 W/m 25,1 km/h (4 Bft) 96,55 %
18.03.2017 15:53 11,7 C 11,1 C 10,0 C 96 % 15 lf 1006,9 hPa 0,0 l/m 0 min 2 min 68 W/m 23,0 km/h (4 Bft) 98,57 %
18.03.2017 15:54 11,7 C 11,1 C 10,0 C 96 % 15 lf 1006,9 hPa 0,0 l/m 0 min 1 min 74 W/m 31,4 km/h (5 Bft) 91,67 %
18.03.2017 15:58 11,6 C 11,1 C 10,0 C 95 % 15 lf 1006,8 hPa 0,0 l/m 0 min 2 min 81 W/m 31,4 km/h (5 Bft) 95,28 %
18.03.2017 15:59 11,6 C 11,1 C 10,0 C 95 % 15 lf 1006,7 hPa 0,2 l/m 0 min 1 min 86 W/m 31,4 km/h (5 Bft) 95,65 %
18.03.2017 16:00 11,6 C 11,1 C 10,0 C 95 % 15 lf 1006,7 hPa 0,0 l/m 0 min 1 min 81 W/m 29,3 km/h (5 Bft) 100,00 %
18.03.2017 16:01 11,6 C 11,1 C 10,0 C 95 % 15 lf 1006,8 hPa 0,0 l/m 0 min 1 min 72 W/m 18,8 km/h (3 Bft) 100,00 %
18.03.2017 16:02 11,5 C 11,1 C 10,0 C 95 % 15 lf 1006,7 hPa 0,0 l/m 0 min 1 min 69 W/m 18,8 km/h (3 Bft) 100,00 %
18.03.2017 16:03 11,5 C 11,1 C 10,0 C 95 % 15 lf 1006,7 hPa 0,0 l/m 0 min 1 min 70 W/m 16,7 km/h (3 Bft) 91,30 %
18.03.2017 16:04 11,5 C 11,1 C 10,0 C 95 % 15 lf 1006,7 hPa 0,0 l/m 0 min 1 min 74 W/m 25,1 km/h (4 Bft) 91,30 %
18.03.2017 16:05 11,5 C 11,1 C 10,0 C 96 % 15 lf 1006,8 hPa 0,0 l/m 0 min 1 min 76 W/m 29,3 km/h (5 Bft) 100,00 %
18.03.2017 16:06 11,5 C 11,1 C 10,0 C 96 % 15 lf 1006,8 hPa 0,0 l/m 0 min 1 min 77 W/m 23,0 km/h (4 Bft) 100,00 %
18.03.2017 16:07 11,5 C 11,1 C 10,0 C 96 % 15 lf 1006,8 hPa 0,0 l/m 0 min 1 min 74 W/m 16,7 km/h (3 Bft) 100,00 %
18.03.2017 16:08 11,4 C 11,1 C 10,0 C 96 % 15 lf 1006,8 hPa 0,2 l/m 0 min 1 min 72 W/m 29,3 km/h (5 Bft) 95,65 %
18.03.2017 16:09 11,4 C 11,1 C 10,0 C 96 % 15 lf 1006,8 hPa 0,0 l/m 0 min 1 min 70 W/m 25,1 km/h (4 Bft) 100,00 %
18.03.2017 16:10 11,4 C 11,1 C 10,0 C 96 % 15 lf 1006,8 hPa 0,0 l/m 0 min 1 min 70 W/m 25,1 km/h (4 Bft) 100,00 %
18.03.2017 16:11 11,4 C 11,1 C 10,0 C 96 % 15 lf 1006,7 hPa 0,0 l/m 0 min 1 min 69 W/m 16,7 km/h (3 Bft) 95,65 %
18.03.2017 16:12 11,4 C 11,1 C 10,0 C 96 % 15 lf 1006,8 hPa 0,0 l/m 0 min 1 min 70 W/m 25,1 km/h (4 Bft) 100,00 %
18.03.2017 16:13 11,4 C 11,1 C 10,0 C 96 % 15 lf 1006,8 hPa 0,0 l/m 0 min 1 min 77 W/m 23,0 km/h (4 Bft) 100,00 %
18.03.2017 16:14 11,4 C 11,1 C 10,0 C 96 % 15 lf 1006,8 hPa 0,0 l/m 0 min 1 min 81 W/m 29,3 km/h (5 Bft) 100,00 %
18.03.2017 16:15 11,4 C 11,1 C 10,0 C 96 % 15 lf 1006,8 hPa 0,2 l/m 0 min 1 min 83 W/m 16,7 km/h (3 Bft) 100,00 %
18.03.2017 16:16 11,4 C 11,1 C 10,0 C 96 % 15 lf 1006,8 hPa 0,0 l/m 0 min 1 min 77 W/m 25,1 km/h (4 Bft) 95,65 %
18.03.2017 16:17 11,4 C 11,1 C 10,0 C 96 % 15 lf 1006,8 hPa 0,0 l/m 0 min 1 min 74 W/m 10,5 km/h (2 Bft) 95,65 %
18.03.2017 16:18 11,4 C 11,1 C 10,0 C 96 % 15 lf 1006,8 hPa 0,0 l/m 0 min 1 min 74 W/m 20,9 km/h (4 Bft) 95,65 %
18.03.2017 16:19 11,4 C 11,1 C 10,0 C 96 % 15 lf 1006,7 hPa 0,0 l/m 0 min 1 min 70 W/m 20,9 km/h (4 Bft) 100,00 %
18.03.2017 16:20 11,4 C 11,1 C 10,0 C 96 % 15 lf 1006,7 hPa 0,0 l/m 0 min 1 min 65 W/m 14,6 km/h (3 Bft) 100,00 %
18.03.2017 16:21 11,4 C 11,1 C 10,0 C 96 % 15 lf 1006,7 hPa 0,0 l/m 0 min 1 min 62 W/m 10,5 km/h (2 Bft) 100,00 %
18.03.2017 16:22 11,4 C 11,1 C 10,0 C 96 % 15 lf 1006,6 hPa 0,0 l/m 0 min 1 min 56 W/m 18,8 km/h (3 Bft) 100,00 %
18.03.2017 16:23 11,4 C 11,1 C 10,0 C 96 % 15 lf 1006,6 hPa 0,0 l/m 0 min 1 min 53 W/m 12,6 km/h (3 Bft) 100,00 %
18.03.2017 16:24 11,4 C 11,1 C 10,0 C 96 % 15 lf 1006,6 hPa 0,0 l/m 0 min 1 min 49 W/m 14,6 km/h (3 Bft) 95,65 %
18.03.2017 16:25 11,4 C 11,1 C 10,0 C 96 % 15 lf 1006,7 hPa 0,0 l/m 0 min 1 min 46 W/m 14,6 km/h (3 Bft) 100,00 %
18.03.2017 16:26 11,4 C 11,1 C 10,0 C 96 % 15 lf 1006,7 hPa 0,0 l/m 0 min 1 min 46 W/m 12,6 km/h (3 Bft) 100,00 %
18.03.2017 16:27 11,4 C 11,1 C 10,0 C 96 % 15 lf 1006,7 hPa 0,0 l/m 0 min 1 min 46 W/m 20,9 km/h (4 Bft) 100,00 %
18.03.2017 16:28 11,4 C 11,1 C 10,0 C 96 % 15 lf 1006,7 hPa 0,2 l/m 0 min 1 min 44 W/m 20,9 km/h (4 Bft) 100,00 %
18.03.2017 16:29 11,3 C 11,1 C 10,0 C 96 % 15 lf 1006,7 hPa 0,0 l/m 0 min 1 min 44 W/m 16,7 km/h (3 Bft) 100,00 %
18.03.2017 16:30 11,3 C 11,1 C 10,0 C 96 % 15 lf 1006,7 hPa 0,0 l/m 0 min 1 min 47 W/m 16,7 km/h (3 Bft) 95,65 %
18.03.2017 16:31 11,3 C 11,1 C 10,0 C 96 % 15 lf 1006,7 hPa 0,0 l/m 0 min 1 min 51 W/m 20,9 km/h (4 Bft) 100,00 %
18.03.2017 16:32 11,3 C 11,1 C 10,0 C 96 % 15 lf 1006,7 hPa 0,0 l/m 0 min 1 min 54 W/m 20,9 km/h (4 Bft) 100,00 %
18.03.2017 16:33 11,3 C 11,1 C 10,0 C 96 % 15 lf 1006,8 hPa 0,0 l/m 0 min 1 min 54 W/m 16,7 km/h (3 Bft) 95,65 %
18.03.2017 16:34 11,3 C 11,1 C 10,0 C 96 % 15 lf 1006,8 hPa 0,0 l/m 0 min 1 min 60 W/m 14,6 km/h (3 Bft) 100,00 %
18.03.2017 16:35 11,3 C 11,1 C 10,0 C 96 % 15 lf 1006,7 hPa 0,0 l/m 0 min 1 min 69 W/m 18,8 km/h (3 Bft) 100,00 %
18.03.2017 16:36 11,3 C 11,1 C 10,0 C 96 % 15 lf 1006,8 hPa 0,0 l/m 0 min 1 min 77 W/m 14,6 km/h (3 Bft) 100,00 %
18.03.2017 16:37 11,3 C 11,1 C 10,0 C 96 % 15 lf 1006,8 hPa 0,0 l/m 0 min 1 min 72 W/m 20,9 km/h (4 Bft) 91,30 %
18.03.2017 16:38 11,3 C 11,1 C 10,0 C 96 % 15 lf 1006,9 hPa 0,0 l/m 0 min 1 min 70 W/m 25,1 km/h (4 Bft) 95,65 %
18.03.2017 16:39 11,3 C 11,1 C 10,0 C 96 % 15 lf 1006,9 hPa 0,0 l/m 0 min 1 min 72 W/m 16,7 km/h (3 Bft) 100,00 %
18.03.2017 16:40 11,3 C 11,1 C 10,0 C 96 % 15 lf 1006,9 hPa 0,0 l/m 0 min 1 min 70 W/m 14,6 km/h (3 Bft) 100,00 %
18.03.2017 16:41 11,3 C 11,1 C 10,0 C 96 % 15 lf 1006,9 hPa 0,2 l/m 0 min 1 min 67 W/m 14,6 km/h (3 Bft) 100,00 %
18.03.2017 16:42 11,3 C 11,1 C 10,0 C 96 % 15 lf 1006,9 hPa 0,0 l/m 0 min 1 min 65 W/m 18,8 km/h (3 Bft) 91,30 %
18.03.2017 16:43 11,3 C 11,1 C 10,0 C 96 % 15 lf 1006,9 hPa 0,0 l/m 0 min 1 min 58 W/m 20,9 km/h (4 Bft) 100,00 %
18.03.2017 16:44 11,3 C 11,1 C 10,0 C 96 % 15 lf 1006,8 hPa 0,0 l/m 0 min 1 min 53 W/m 25,1 km/h (4 Bft) 95,65 %
18.03.2017 16:45 11,2 C 11,1 C 10,0 C 96 % 15 lf 1006,9 hPa 0,0 l/m 0 min 1 min 49 W/m 18,8 km/h (3 Bft) 100,00 %
18.03.2017 16:46 11,2 C 11,1 C 10,0 C 96 % 15 lf 1006,8 hPa 0,0 l/m 0 min 1 min 51 W/m 18,8 km/h (3 Bft) 100,00 %
18.03.2017 16:47 11,2 C 11,1 C 10,0 C 96 % 15 lf 1006,8 hPa 0,0 l/m 0 min 1 min 53 W/m 25,1 km/h (4 Bft) 100,00 %
18.03.2017 16:48 11,2 C 11,1 C 10,0 C 96 % 15 lf 1006,8 hPa 0,0 l/m 0 min 1 min 54 W/m 16,7 km/h (3 Bft) 95,65 %
18.03.2017 16:49 11,2 C 11,1 C 10,0 C 96 % 15 lf 1006,8 hPa 0,0 l/m 0 min 1 min 58 W/m 20,9 km/h (4 Bft) 100,00 %
18.03.2017 16:50 11,2 C 11,1 C 10,0 C 96 % 15 lf 1006,8 hPa 0,2 l/m 0 min 1 min 63 W/m 23,0 km/h (4 Bft) 91,30 %
18.03.2017 16:51 11,2 C 11,1 C 10,0 C 96 % 15 lf 1006,8 hPa 0,0 l/m 0 min 1 min 65 W/m 14,6 km/h (3 Bft) 100,00 %
18.03.2017 16:52 11,2 C 11,1 C 10,0 C 96 % 15 lf 1006,8 hPa 0,0 l/m 0 min 1 min 65 W/m 25,1 km/h (4 Bft) 91,30 %
18.03.2017 16:53 11,2 C 11,1 C 10,0 C 96 % 15 lf 1006,8 hPa 0,0 l/m 0 min 1 min 67 W/m 27,2 km/h (4 Bft) 95,65 %
18.03.2017 16:54 11,2 C 11,1 C 10,0 C 96 % 15 lf 1006,7 hPa 0,0 l/m 0 min 1 min 63 W/m 18,8 km/h (3 Bft) 95,65 %
18.03.2017 16:55 11,2 C 11,1 C 10,0 C 96 % 15 lf 1006,8 hPa 0,0 l/m 0 min 1 min 60 W/m 12,6 km/h (3 Bft) 95,65 %
18.03.2017 16:56 11,2 C 11,1 C 10,0 C 96 % 15 lf 1006,9 hPa 0,0 l/m 0 min 1 min 63 W/m 12,6 km/h (3 Bft) 86,96 %
18.03.2017 16:57 11,2 C 11,1 C 10,0 C 96 % 15 lf 1006,9 hPa 0,0 l/m 0 min 1 min 70 W/m 14,6 km/h (3 Bft) 91,30 %
18.03.2017 16:58 11,2 C 11,1 C 10,0 C 96 % 15 lf 1006,8 hPa 0,0 l/m 0 min 1 min 83 W/m 18,8 km/h (3 Bft) 100,00 %
18.03.2017 16:59 11,2 C 11,1 C 10,0 C 96 % 15 lf 1006,8 hPa 0,0 l/m 0 min 1 min 89 W/m 25,1 km/h (4 Bft) 91,30 %
18.03.2017 17:00 11,2 C 11,1 C 10,0 C 96 % 15 lf 1006,8 hPa 0,0 l/m 0 min 1 min 81 W/m 12,6 km/h (3 Bft) 100,00 %
18.03.2017 17:01 11,2 C 11,1 C 10,0 C 96 % 15 lf 1006,8 hPa 0,0 l/m 0 min 1 min 70 W/m 10,5 km/h (2 Bft) 91,30 %
18.03.2017 17:02 11,2 C 11,1 C 10,0 C 96 % 15 lf 1006,8 hPa 0,2 l/m 0 min 1 min 67 W/m 12,6 km/h (3 Bft) 100,00 %
18.03.2017 17:03 11,2 C 11,1 C 10,0 C 96 % 15 lf 1006,8 hPa 0,0 l/m 0 min 1 min 65 W/m 16,7 km/h (3 Bft) 86,96 %
18.03.2017 17:04 11,3 C 11,1 C 10,0 C 96 % 15 lf 1006,8 hPa 0,0 l/m 0 min 1 min 65 W/m 12,6 km/h (3 Bft) 95,65 %
18.03.2017 17:05 11,3 C 11,1 C 10,0 C 96 % 15 lf 1006,8 hPa 0,0 l/m 0 min 1 min 63 W/m 16,7 km/h (3 Bft) 86,96 %
18.03.2017 17:06 11,3 C 11,1 C 10,0 C 96 % 15 lf 1006,8 hPa 0,0 l/m 0 min 1 min 62 W/m 29,3 km/h (5 Bft) 100,00 %
18.03.2017 17:07 11,3 C 11,1 C 10,0 C 96 % 15 lf 1006,8 hPa 0,0 l/m 0 min 1 min 62 W/m 16,7 km/h (3 Bft) 91,30 %
18.03.2017 17:08 11,3 C 11,1 C 10,0 C 96 % 15 lf 1006,8 hPa 0,0 l/m 0 min 1 min 62 W/m 14,6 km/h (3 Bft) 100,00 %
18.03.2017 17:09 11,3 C 11,1 C 10,0 C 96 % 15 lf 1006,8 hPa 0,0 l/m 0 min 1 min 63 W/m 23,0 km/h (4 Bft) 91,30 %
18.03.2017 17:10 11,3 C 11,1 C 10,0 C 96 % 15 lf 1006,9 hPa 0,0 l/m 0 min 1 min 62 W/m 16,7 km/h (3 Bft) 100,00 %
18.03.2017 17:11 11,3 C 11,1 C 10,0 C 96 % 15 lf 1006,8 hPa 0,0 l/m 0 min 1 min 55 W/m 16,7 km/h (3 Bft) 82,61 %
18.03.2017 17:12 11,3 C 11,1 C 10,0 C 96 % 15 lf 1006,9 hPa 0,0 l/m 0 min 1 min 47 W/m 18,8 km/h (3 Bft) 95,65 %
18.03.2017 17:13 11,3 C 11,1 C 10,0 C 96 % 15 lf 1006,9 hPa 0,0 l/m 0 min 1 min 47 W/m 16,7 km/h (3 Bft) 91,30 %
18.03.2017 17:14 11,3 C 11,1 C 10,0 C 96 % 15 lf 1007,0 hPa 0,0 l/m 0 min 1 min 46 W/m 12,6 km/h (3 Bft) 95,65 %
18.03.2017 17:16 11,3 C 11,1 C 10,0 C 97 % 15 lf 1007,0 hPa 0,0 l/m 0 min 2 min 43 W/m 18,8 km/h (3 Bft) 100,00 %
18.03.2017 17:18 11,3 C 11,1 C 10,0 C 97 % 15 lf 1007,0 hPa 0,0 l/m 0 min 0 min 33 W/m 18,8 km/h (3 Bft) 93,62 %
18.03.2017 17:20 11,3 C 11,1 C 10,0 C 97 % 15 lf 1007,1 hPa 0,0 l/m 0 min 2 min 26 W/m 25,1 km/h (4 Bft) 91,49 %
18.03.2017 17:22 11,3 C 11,1 C 10,0 C 97 % 15 lf 1007,4 hPa 0,0 l/m 0 min 2 min 19 W/m 23,0 km/h (4 Bft) 89,36 %
18.03.2017 17:24 11,3 C 11,1 C 10,0 C 97 % 15 lf 1007,4 hPa 0,0 l/m 0 min 2 min 14 W/m 20,9 km/h (4 Bft) 93,48 %
18.03.2017 17:26 11,3 C 11,1 C 10,0 C 97 % 15 lf 1007,2 hPa 0,0 l/m 0 min 2 min 12 W/m 14,6 km/h (3 Bft) 93,62 %
18.03.2017 17:28 11,3 C 11,1 C 10,0 C 97 % 15 lf 1007,1 hPa 0,0 l/m 0 min 2 min 18 W/m 16,7 km/h (3 Bft) 93,62 %
18.03.2017 17:30 11,3 C 11,1 C 10,0 C 97 % 15 lf 1007,3 hPa 0,2 l/m 0 min 2 min 21 W/m 25,1 km/h (4 Bft) 91,49 %
18.03.2017 17:32 11,3 C 11,1 C 9,4 C 97 % 15 lf 1007,2 hPa 0,0 l/m 0 min 2 min 20 W/m 20,9 km/h (4 Bft) 97,87 %
18.03.2017 17:34 11,3 C 11,1 C 9,4 C 97 % 15 lf 1007,0 hPa 0,0 l/m 0 min 2 min 19 W/m 18,8 km/h (3 Bft) 95,74 %
18.03.2017 17:36 11,2 C 11,1 C 9,4 C 97 % 15 lf 1007,0 hPa 0,0 l/m 0 min 2 min 19 W/m 29,3 km/h (5 Bft) 95,65 %
18.03.2017 17:38 11,2 C 11,1 C 9,4 C 97 % 15 lf 1007,1 hPa 0,2 l/m 0 min 2 min 18 W/m 29,3 km/h (5 Bft) 93,62 %
18.03.2017 17:40 11,2 C 10,6 C 9,4 C 97 % 15 lf 1007,3 hPa 0,0 l/m 0 min 2 min 14 W/m 29,3 km/h (5 Bft) 97,87 %
18.03.2017 17:42 11,2 C 10,6 C 9,4 C 97 % 15 lf 1007,5 hPa 0,0 l/m 0 min 2 min 14 W/m 25,1 km/h (4 Bft) 93,62 %
18.03.2017 17:44 11,2 C 10,6 C 9,4 C 97 % 15 lf 1007,6 hPa 0,0 l/m 0 min 2 min 11 W/m 33,5 km/h (5 Bft) 97,87 %
18.03.2017 17:46 11,2 C 10,6 C 9,4 C 97 % 15 lf 1007,6 hPa 0,0 l/m 0 min 2 min 11 W/m 14,6 km/h (3 Bft) 93,62 %
18.03.2017 17:48 11,2 C 10,6 C 9,4 C 97 % 15 lf 1007,4 hPa 0,0 l/m 0 min 2 min 13 W/m 20,9 km/h (4 Bft) 97,83 %
18.03.2017 17:50 11,2 C 11,1 C 9,4 C 97 % 15 lf 1007,2 hPa 0,0 l/m 0 min 2 min 14 W/m 12,6 km/h (3 Bft) 100,00 %
18.03.2017 17:52 11,2 C 11,1 C 9,4 C 97 % 15 lf 1007,2 hPa 0,2 l/m 0 min 2 min 16 W/m 20,9 km/h (4 Bft) 100,00 %
18.03.2017 17:54 11,2 C 10,6 C 9,4 C 97 % 15 lf 1007,3 hPa 0,0 l/m 0 min 2 min 12 W/m 12,6 km/h (3 Bft) 100,00 %
18.03.2017 17:56 11,2 C 10,6 C 9,4 C 97 % 15 lf 1007,2 hPa 0,0 l/m 0 min 2 min 10 W/m 14,6 km/h (3 Bft) 96,55 %
18.03.2017 17:58 11,1 C 10,6 C 9,4 C 97 % 15 lf 1007,3 hPa 0,0 l/m 0 min 2 min 9 W/m 23,0 km/h (4 Bft) 100,00 %
18.03.2017 18:00 11,1 C 10,6 C 9,4 C 97 % 15 lf 1007,4 hPa 0,0 l/m 0 min 2 min 7 W/m 23,0 km/h (4 Bft) 98,28 %
18.03.2017 18:02 11,1 C 10,6 C 9,4 C 97 % 15 lf 1007,5 hPa 0,2 l/m 0 min 2 min 9 W/m 14,6 km/h (3 Bft) 100,00 %
18.03.2017 18:04 11,1 C 10,6 C 9,4 C 97 % 15 lf 1007,5 hPa 0,0 l/m 0 min 2 min 7 W/m 16,7 km/h (3 Bft) 97,14 %
18.03.2017 18:06 11,1 C 10,6 C 9,4 C 97 % 15 lf 1007,5 hPa 0,2 l/m 0 min 2 min 7 W/m 16,7 km/h (3 Bft) 97,87 %
18.03.2017 18:08 11,1 C 10,6 C 9,4 C 97 % 15 lf 1007,5 hPa 0,0 l/m 0 min 2 min 5 W/m 12,6 km/h (3 Bft) 97,87 %
18.03.2017 18:10 11,1 C 10,6 C 9,4 C 97 % 15 lf 1007,5 hPa 0,0 l/m 0 min 2 min 6 W/m 14,6 km/h (3 Bft) 95,74 %
18.03.2017 18:12 11,1 C 10,6 C 9,4 C 97 % 15 lf 1007,5 hPa 0,2 l/m 0 min 2 min 8 W/m 14,6 km/h (3 Bft) 95,65 %
18.03.2017 18:14 11,1 C 10,6 C 9,4 C 97 % 15 lf 1007,6 hPa 0,0 l/m 0 min 2 min 9 W/m 23,0 km/h (4 Bft) 97,87 %
18.03.2017 18:16 11,1 C 10,6 C 9,4 C 97 % 15 lf 1007,6 hPa 0,0 l/m 0 min 2 min 9 W/m 14,6 km/h (3 Bft) 95,74 %
18.03.2017 18:18 11,1 C 10,6 C 9,4 C 97 % 15 lf 1007,7 hPa 0,0 l/m 0 min 2 min 9 W/m 16,7 km/h (3 Bft) 97,87 %
18.03.2017 18:20 11,1 C 10,6 C 9,4 C 97 % 15 lf 1007,7 hPa 0,0 l/m 0 min 2 min 7 W/m 16,7 km/h (3 Bft) 95,74 %
18.03.2017 18:22 11,1 C 10,6 C 9,4 C 97 % 15 lf 1007,7 hPa 0,0 l/m 0 min 2 min 7 W/m 16,7 km/h (3 Bft) 97,83 %
18.03.2017 18:24 11,1 C 10,6 C 9,4 C 97 % 15 lf 1007,6 hPa 0,0 l/m 0 min 2 min 7 W/m 16,7 km/h (3 Bft) 95,74 %
18.03.2017 18:26 11,0 C 10,6 C 9,4 C 97 % 15 lf 1007,5 hPa 0,0 l/m 0 min 2 min 7 W/m 23,0 km/h (4 Bft) 97,87 %
18.03.2017 18:28 11,0 C 10,6 C 9,4 C 97 % 15 lf 1007,5 hPa 0,0 l/m 0 min 2 min 6 W/m 20,9 km/h (4 Bft) 93,62 %
18.03.2017 18:30 11,0 C 10,6 C 9,4 C 97 % 15 lf 1007,6 hPa 0,0 l/m 0 min 2 min 5 W/m 20,9 km/h (4 Bft) 93,62 %
18.03.2017 18:32 10,9 C 10,6 C 9,4 C 97 % 15 lf 1007,8 hPa 0,0 l/m 0 min 2 min 5 W/m 23,0 km/h (4 Bft) 95,74 %
18.03.2017 18:34 10,9 C 10,6 C 9,4 C 97 % 15 lf 1007,8 hPa 0,0 l/m 0 min 2 min 5 W/m 27,2 km/h (4 Bft) 97,83 %
18.03.2017 18:36 10,9 C 10,6 C 9,4 C 97 % 15 lf 1007,7 hPa 0,0 l/m 0 min 2 min 5 W/m 18,8 km/h (3 Bft) 97,87 %
18.03.2017 18:38 10,9 C 10,6 C 9,4 C 97 % 15 lf 1007,7 hPa 0,0 l/m 0 min 2 min 5 W/m 16,7 km/h (3 Bft) 97,87 %
18.03.2017 18:40 10,9 C 10,6 C 9,4 C 97 % 15 lf 1007,6 hPa 0,0 l/m 0 min 2 min 5 W/m 16,7 km/h (3 Bft) 95,74 %
18.03.2017 18:42 10,8 C 10,6 C 9,4 C 97 % 15 lf 1007,7 hPa 0,0 l/m 0 min 2 min 2 W/m 12,6 km/h (3 Bft) 97,87 %
18.03.2017 18:44 10,8 C 10,6 C 9,4 C 97 % 15 lf 1007,6 hPa 0,2 l/m 0 min 2 min 0 W/m 16,7 km/h (3 Bft) 95,74 %
18.03.2017 18:46 10,8 C 10,6 C 9,4 C 97 % 15 lf 1007,6 hPa 0,0 l/m 0 min 2 min 0 W/m 12,6 km/h (3 Bft) 93,48 %
18.03.2017 18:48 10,8 C 10,6 C 9,4 C 97 % 15 lf 1007,7 hPa 0,0 l/m 0 min 2 min 0 W/m 16,7 km/h (3 Bft) 97,87 %
18.03.2017 18:50 10,8 C 10,6 C 8,9 C 97 % 15 lf 1007,6 hPa 0,0 l/m 0 min 2 min 0 W/m 12,6 km/h (3 Bft) 95,74 %
18.03.2017 18:53 10,7 C 10,6 C 8,9 C 97 % 15 lf 1007,6 hPa 0,0 l/m 0 min 2 min 0 W/m 12,6 km/h (3 Bft) 92,86 %
18.03.2017 18:54 10,7 C 10,6 C 8,9 C 97 % 15 lf 1007,6 hPa 0,0 l/m 0 min 1 min 0 W/m 14,6 km/h (3 Bft) 95,83 %
18.03.2017 18:58 10,7 C 10,6 C 8,9 C 97 % 15 lf 1007,7 hPa 0,0 l/m 0 min 2 min 0 W/m 12,6 km/h (3 Bft) 95,70 %
18.03.2017 18:59 10,7 C 10,6 C 8,9 C 97 % 15 lf 1007,8 hPa 0,0 l/m 0 min 1 min 0 W/m 10,5 km/h (2 Bft) 95,83 %
18.03.2017 19:00 10,7 C 10,6 C 8,9 C 97 % 15 lf 1007,8 hPa 0,0 l/m 0 min 1 min 0 W/m 8,4 km/h (2 Bft) 100,00 %
18.03.2017 19:01 10,7 C 10,6 C 8,9 C 97 % 15 lf 1008,0 hPa 0,0 l/m 0 min 1 min 0 W/m 6,3 km/h (2 Bft) 100,00 %
18.03.2017 19:02 10,7 C 10,6 C 8,9 C 97 % 15 lf 1008,1 hPa 0,0 l/m 0 min 1 min 0 W/m 6,3 km/h (2 Bft) 95,65 %
18.03.2017 19:03 10,7 C 10,6 C 8,9 C 97 % 15 lf 1008,1 hPa 0,0 l/m 0 min 1 min 0 W/m 6,3 km/h (2 Bft) 100,00 %
18.03.2017 19:04 10,7 C 10,6 C 8,9 C 97 % 15 lf 1008,1 hPa 0,0 l/m 0 min 1 min 0 W/m 12,6 km/h (3 Bft) 95,65 %
18.03.2017 19:05 10,7 C 10,6 C 8,9 C 97 % 15 lf 1008,1 hPa 0,2 l/m 0 min 1 min 0 W/m 6,3 km/h (2 Bft) 100,00 %
18.03.2017 19:06 10,7 C 10,6 C 8,9 C 97 % 15 lf 1008,1 hPa 0,0 l/m 0 min 1 min 0 W/m 12,6 km/h (3 Bft) 95,65 %
18.03.2017 19:07 10,7 C 10,6 C 8,9 C 97 % 15 lf 1008,1 hPa 0,0 l/m 0 min 1 min 0 W/m 14,6 km/h (3 Bft) 100,00 %
18.03.2017 19:08 10,7 C 10,6 C 8,9 C 97 % 15 lf 1008,1 hPa 0,0 l/m 0 min 1 min 0 W/m 12,6 km/h (3 Bft) 95,65 %
18.03.2017 19:09 10,7 C 10,6 C 8,9 C 97 % 15 lf 1008,1 hPa 0,0 l/m 0 min 1 min 0 W/m 8,4 km/h (2 Bft) 100,00 %
18.03.2017 19:10 10,6 C 10,6 C 8,9 C 97 % 15 lf 1008,1 hPa 0,0 l/m 0 min 1 min 0 W/m 10,5 km/h (2 Bft) 91,30 %
18.03.2017 19:11 10,6 C 10,6 C 8,9 C 97 % 15 lf 1008,1 hPa 0,2 l/m 0 min 1 min 0 W/m 10,5 km/h (2 Bft) 100,00 %
18.03.2017 19:12 10,6 C 10,6 C 8,9 C 97 % 15 lf 1008,2 hPa 0,0 l/m 0 min 1 min 0 W/m 12,6 km/h (3 Bft) 91,30 %
18.03.2017 19:13 10,6 C 10,6 C 8,9 C 97 % 15 lf 1008,2 hPa 0,0 l/m 0 min 1 min 0 W/m 8,4 km/h (2 Bft) 100,00 %
18.03.2017 19:14 10,6 C 10,6 C 8,9 C 97 % 15 lf 1008,2 hPa 0,2 l/m 0 min 1 min 0 W/m 14,6 km/h (3 Bft) 95,65 %
18.03.2017 19:15 10,6 C 10,6 C 8,9 C 97 % 15 lf 1008,3 hPa 0,0 l/m 0 min 1 min 0 W/m 12,6 km/h (3 Bft) 100,00 %
18.03.2017 19:16 10,6 C 10,6 C 8,9 C 97 % 15 lf 1008,3 hPa 0,0 l/m 0 min 1 min 0 W/m 6,3 km/h (2 Bft) 95,65 %
18.03.2017 19:17 10,6 C 10,6 C 8,9 C 97 % 15 lf 1008,3 hPa 0,0 l/m 0 min 1 min 0 W/m 10,5 km/h (2 Bft) 100,00 %
18.03.2017 19:18 10,6 C 10,6 C 8,9 C 97 % 15 lf 1008,3 hPa 0,2 l/m 0 min 1 min 0 W/m 10,5 km/h (2 Bft) 95,65 %
18.03.2017 19:19 10,6 C 10,0 C 8,9 C 97 % 15 lf 1008,3 hPa 0,0 l/m 0 min 1 min 0 W/m 18,8 km/h (3 Bft) 95,65 %
18.03.2017 19:20 10,6 C 10,0 C 8,9 C 97 % 15 lf 1008,4 hPa 0,0 l/m 0 min 1 min 0 W/m 18,8 km/h (3 Bft) 95,65 %
18.03.2017 19:21 10,6 C 10,0 C 8,9 C 97 % 15 lf 1008,4 hPa 0,0 l/m 0 min 1 min 0 W/m 14,6 km/h (3 Bft) 95,65 %
18.03.2017 19:22 10,6 C 10,0 C 8,9 C 97 % 15 lf 1008,4 hPa 0,2 l/m 0 min 1 min 0 W/m 14,6 km/h (3 Bft) 100,00 %
18.03.2017 19:23 10,6 C 10,0 C 8,9 C 97 % 15 lf 1008,4 hPa 0,0 l/m 0 min 1 min 0 W/m 12,6 km/h (3 Bft) 100,00 %
18.03.2017 19:24 10,6 C 10,0 C 8,9 C 97 % 15 lf 1008,5 hPa 0,0 l/m 0 min 1 min 0 W/m 10,5 km/h (2 Bft) 95,65 %
18.03.2017 19:25 10,6 C 10,0 C 8,9 C 97 % 15 lf 1008,5 hPa 0,0 l/m 0 min 1 min 0 W/m 10,5 km/h (2 Bft) 100,00 %
18.03.2017 19:26 10,6 C 10,0 C 8,9 C 97 % 15 lf 1008,6 hPa 0,0 l/m 0 min 1 min 0 W/m 8,4 km/h (2 Bft) 100,00 %
18.03.2017 19:28 10,5 C 10,0 C 8,9 C 97 % 15 lf 1008,6 hPa 0,0 l/m 0 min 2 min 0 W/m 6,3 km/h (2 Bft) 95,92 %
18.03.2017 19:30 10,5 C 10,0 C 8,9 C 97 % 15 lf 1008,7 hPa 0,0 l/m 0 min 2 min 0 W/m 16,7 km/h (3 Bft) 98,33 %
18.03.2017 19:32 10,5 C 10,0 C 8,9 C 97 % 15 lf 1008,7 hPa 0,2 l/m 0 min 2 min 0 W/m 14,6 km/h (3 Bft) 100,00 %
18.03.2017 19:34 10,5 C 10,0 C 8,9 C 97 % 15 lf 1008,7 hPa 0,0 l/m 0 min 2 min 0 W/m 18,8 km/h (3 Bft) 100,00 %
18.03.2017 19:36 10,4 C 10,0 C 8,9 C 98 % 15 lf 1008,7 hPa 0,0 l/m 0 min 2 min 0 W/m 12,6 km/h (3 Bft) 100,00 %
18.03.2017 19:38 10,4 C 10,0 C 8,9 C 98 % 15 lf 1008,6 hPa 0,0 l/m 0 min 2 min 0 W/m 16,7 km/h (3 Bft) 97,87 %
18.03.2017 19:40 10,4 C 10,0 C 8,9 C 97 % 15 lf 1008,7 hPa 0,0 l/m 0 min 2 min 0 W/m 10,5 km/h (2 Bft) 95,74 %
18.03.2017 19:42 10,4 C 10,0 C 8,9 C 97 % 15 lf 1008,8 hPa 0,0 l/m 0 min 2 min 0 W/m 14,6 km/h (3 Bft) 97,87 %
18.03.2017 19:44 10,4 C 10,0 C 8,9 C 97 % 15 lf 1008,9 hPa 0,0 l/m 0 min 2 min 0 W/m 10,5 km/h (2 Bft) 97,87 %
18.03.2017 19:46 10,4 C 10,0 C 8,9 C 97 % 15 lf 1008,8 hPa 0,2 l/m 0 min 2 min 0 W/m 8,4 km/h (2 Bft) 97,83 %
18.03.2017 19:48 10,4 C 10,0 C 8,9 C 97 % 15 lf 1008,7 hPa 0,0 l/m 0 min 2 min 0 W/m 10,5 km/h (2 Bft) 97,87 %
18.03.2017 19:50 10,4 C 10,0 C 8,9 C 97 % 15 lf 1008,6 hPa 0,0 l/m 0 min 2 min 0 W/m 10,5 km/h (2 Bft) 97,87 %
18.03.2017 19:52 10,4 C 10,0 C 8,9 C 97 % 15 lf 1008,7 hPa 0,0 l/m 0 min 2 min 0 W/m 12,6 km/h (3 Bft) 93,62 %
18.03.2017 19:54 10,4 C 10,0 C 8,9 C 97 % 15 lf 1008,7 hPa 0,0 l/m 0 min 0 min 0 W/m 10,5 km/h (2 Bft) 97,87 %
18.03.2017 19:56 10,4 C 10,0 C 8,9 C 97 % 15 lf 1008,7 hPa 0,0 l/m 0 min 0 min 0 W/m 18,8 km/h (3 Bft) 97,83 %
18.03.2017 19:58 10,4 C 10,0 C 8,9 C 97 % 15 lf 1008,6 hPa 0,0 l/m 0 min 0 min 0 W/m 12,6 km/h (3 Bft) 95,74 %
18.03.2017 20:00 10,3 C 10,0 C 8,9 C 97 % 15 lf 1008,7 hPa 0,0 l/m 0 min 0 min 0 W/m 12,6 km/h (3 Bft) 97,87 %
18.03.2017 20:02 10,3 C 10,0 C 8,9 C 98 % 15 lf 1008,7 hPa 0,0 l/m 0 min 2 min 0 W/m 12,6 km/h (3 Bft) 97,87 %
18.03.2017 20:04 10,3 C 10,0 C 8,9 C 98 % 15 lf 1008,7 hPa 0,0 l/m 0 min 0 min 0 W/m 14,6 km/h (3 Bft) 95,74 %
18.03.2017 20:06 10,3 C 10,0 C 8,9 C 98 % 15 lf 1008,7 hPa 0,0 l/m 0 min 2 min 0 W/m 12,6 km/h (3 Bft) 100,00 %
18.03.2017 20:07 10,3 C 10,0 C 8,9 C 98 % 15 lf 1008,7 hPa 0,0 l/m 0 min 0 min 0 W/m 12,6 km/h (3 Bft) 100,00 %
18.03.2017 20:08 10,3 C 10,0 C 8,9 C 98 % 15 lf 1008,8 hPa 0,0 l/m 0 min 0 min 0 W/m 14,6 km/h (3 Bft) 100,00 %
18.03.2017 20:09 10,3 C 10,0 C 8,9 C 98 % 15 lf 1008,8 hPa 0,0 l/m 0 min 1 min 0 W/m 12,6 km/h (3 Bft) 100,00 %
18.03.2017 20:10 10,3 C 10,0 C 8,9 C 98 % 15 lf 1008,9 hPa 0,0 l/m 0 min 1 min 0 W/m 8,4 km/h (2 Bft) 100,00 %
18.03.2017 20:11 10,3 C 10,0 C 8,9 C 98 % 15 lf 1008,9 hPa 0,0 l/m 0 min 1 min 0 W/m 10,5 km/h (2 Bft) 95,65 %
18.03.2017 20:12 10,3 C 10,0 C 8,9 C 98 % 15 lf 1008,9 hPa 0,0 l/m 0 min 1 min 0 W/m 8,4 km/h (2 Bft) 100,00 %
18.03.2017 20:14 10,3 C 10,0 C 8,9 C 98 % 15 lf 1008,8 hPa 0,0 l/m 0 min 0 min 0 W/m 6,3 km/h (2 Bft) 97,37 %
18.03.2017 20:16 10,3 C 10,0 C 8,9 C 98 % 15 lf 1008,8 hPa 0,0 l/m 0 min 2 min 0 W/m 10,5 km/h (2 Bft) 97,78 %
18.03.2017 20:18 10,3 C 10,0 C 8,9 C 98 % 15 lf 1008,9 hPa 0,0 l/m 0 min 2 min 0 W/m 10,5 km/h (2 Bft) 97,87 %
18.03.2017 20:20 10,3 C 10,0 C 8,9 C 98 % 15 lf 1008,8 hPa 0,0 l/m 0 min 2 min 0 W/m 8,4 km/h (2 Bft) 97,83 %
18.03.2017 20:22 10,2 C 10,0 C 8,9 C 98 % 15 lf 1008,7 hPa 0,0 l/m 0 min 2 min 0 W/m 6,3 km/h (2 Bft) 95,74 %
18.03.2017 20:24 10,2 C 10,0 C 8,9 C 98 % 15 lf 1008,6 hPa 0,0 l/m 0 min 0 min 0 W/m 10,5 km/h (2 Bft) 95,74 %
18.03.2017 20:26 10,2 C 10,0 C 8,9 C 98 % 15 lf 1008,6 hPa 0,0 l/m 0 min 2 min 0 W/m 10,5 km/h (2 Bft) 97,87 %
18.03.2017 20:28 10,2 C 10,0 C 8,9 C 98 % 15 lf 1008,6 hPa 0,0 l/m 0 min 2 min 0 W/m 10,5 km/h (2 Bft) 97,87 %
18.03.2017 20:30 10,2 C 10,0 C 8,9 C 98 % 15 lf 1008,6 hPa 0,0 l/m 0 min 0 min 0 W/m 10,5 km/h (2 Bft) 100,00 %
18.03.2017 20:32 10,2 C 10,0 C 8,9 C 98 % 15 lf 1008,6 hPa 0,0 l/m 0 min 0 min 0 W/m 12,6 km/h (3 Bft) 93,48 %
18.03.2017 20:34 10,2 C 10,0 C 8,9 C 98 % 15 lf 1008,6 hPa 0,0 l/m 0 min 0 min 0 W/m 8,4 km/h (2 Bft) 97,87 %
18.03.2017 20:36 10,2 C 10,0 C 8,9 C 98 % 15 lf 1008,6 hPa 0,0 l/m 0 min 0 min 0 W/m 10,5 km/h (2 Bft) 95,74 %
18.03.2017 20:38 10,2 C 10,0 C 8,9 C 98 % 15 lf 1008,7 hPa 0,0 l/m 0 min 0 min 0 W/m 8,4 km/h (2 Bft) 95,74 %
18.03.2017 20:40 10,2 C 10,0 C 8,9 C 98 % 15 lf 1008,8 hPa 0,0 l/m 0 min 0 min 0 W/m 10,5 km/h (2 Bft) 97,87 %
18.03.2017 20:42 10,2 C 10,0 C 8,9 C 98 % 15 lf 1008,7 hPa 0,0 l/m 0 min 0 min 0 W/m 8,4 km/h (2 Bft) 95,65 %
18.03.2017 20:44 10,2 C 10,0 C 8,9 C 98 % 15 lf 1008,8 hPa 0,0 l/m 0 min 0 min 0 W/m 12,6 km/h (3 Bft) 95,74 %
18.03.2017 20:46 10,2 C 10,0 C 8,9 C 98 % 15 lf 1008,7 hPa 0,0 l/m 0 min 0 min 0 W/m 14,6 km/h (3 Bft) 95,74 %
18.03.2017 20:48 10,2 C 10,0 C 8,9 C 98 % 15 lf 1008,7 hPa 0,0 l/m 0 min 0 min 0 W/m 14,6 km/h (3 Bft) 93,62 %
18.03.2017 20:50 10,2 C 10,0 C 8,9 C 98 % 15 lf 1008,7 hPa 0,0 l/m 0 min 0 min 0 W/m 8,4 km/h (2 Bft) 97,87 %
18.03.2017 20:52 10,2 C 10,0 C 8,9 C 98 % 15 lf 1008,9 hPa 0,0 l/m 0 min 0 min 0 W/m 8,4 km/h (2 Bft) 93,62 %
18.03.2017 20:54 10,2 C 10,0 C 8,9 C 98 % 15 lf 1008,9 hPa 0,0 l/m 0 min 0 min 0 W/m 8,4 km/h (2 Bft) 95,65 %
18.03.2017 20:56 10,2 C 10,0 C 8,9 C 98 % 15 lf 1008,8 hPa 0,0 l/m 0 min 0 min 0 W/m 4,2 km/h (1 Bft) 97,87 %
18.03.2017 20:58 10,2 C 10,0 C 8,9 C 98 % 15 lf 1008,7 hPa 0,0 l/m 0 min 0 min 0 W/m 6,3 km/h (2 Bft) 93,62 %
18.03.2017 21:00 10,1 C 10,0 C 8,9 C 98 % 15 lf 1008,7 hPa 0,0 l/m 0 min 0 min 0 W/m 8,4 km/h (2 Bft) 95,74 %
18.03.2017 21:02 10,1 C 10,0 C 8,9 C 98 % 15 lf 1008,7 hPa 0,0 l/m 0 min 0 min 0 W/m 8,4 km/h (2 Bft) 95,74 %
18.03.2017 21:04 10,1 C 10,0 C 8,9 C 98 % 15 lf 1008,8 hPa 0,0 l/m 0 min 0 min 0 W/m 8,4 km/h (2 Bft) 91,49 %
18.03.2017 21:06 10,1 C 10,0 C 8,9 C 98 % 15 lf 1008,9 hPa 0,0 l/m 0 min 0 min 0 W/m 10,5 km/h (2 Bft) 93,48 %
18.03.2017 21:08 10,1 C 10,0 C 8,9 C 98 % 15 lf 1008,9 hPa 0,0 l/m 0 min 0 min 0 W/m 10,5 km/h (2 Bft) 93,62 %
18.03.2017 21:10 10,1 C 10,0 C 8,9 C 98 % 15 lf 1008,9 hPa 0,0 l/m 0 min 0 min 0 W/m 12,6 km/h (3 Bft) 91,49 %
18.03.2017 21:12 10,1 C 10,0 C 8,9 C 98 % 15 lf 1008,8 hPa 0,0 l/m 0 min 0 min 0 W/m 6,3 km/h (2 Bft) 93,62 %
18.03.2017 21:14 10,1 C 10,0 C 8,9 C 98 % 15 lf 1008,9 hPa 0,0 l/m 0 min 0 min 0 W/m 10,5 km/h (2 Bft) 95,74 %
18.03.2017 21:16 10,1 C 10,0 C 8,9 C 98 % 15 lf 1009,0 hPa 0,0 l/m 0 min 0 min 0 W/m 6,3 km/h (2 Bft) 91,49 %
18.03.2017 21:18 10,1 C 10,0 C 8,9 C 98 % 15 lf 1009,0 hPa 0,0 l/m 0 min 0 min 0 W/m 12,6 km/h (3 Bft) 93,48 %
18.03.2017 21:20 10,1 C 10,0 C 8,9 C 98 % 15 lf 1009,0 hPa 0,0 l/m 0 min 0 min 0 W/m 10,5 km/h (2 Bft) 93,62 %
18.03.2017 21:22 10,1 C 10,0 C 8,9 C 98 % 15 lf 1009,0 hPa 0,0 l/m 0 min 0 min 0 W/m 6,3 km/h (2 Bft) 93,62 %
18.03.2017 21:24 10,1 C 10,0 C 8,9 C 98 % 15 lf 1009,0 hPa 0,0 l/m 0 min 0 min 0 W/m 8,4 km/h (2 Bft) 95,74 %
18.03.2017 21:26 10,1 C 10,0 C 8,9 C 98 % 15 lf 1009,1 hPa 0,0 l/m 0 min 0 min 0 W/m 6,3 km/h (2 Bft) 91,49 %
18.03.2017 21:28 10,1 C 10,0 C 8,9 C 98 % 15 lf 1009,1 hPa 0,0 l/m 0 min 0 min 0 W/m 6,3 km/h (2 Bft) 93,48 %
18.03.2017 21:30 10,1 C 10,0 C 8,9 C 98 % 15 lf 1009,1 hPa 0,0 l/m 0 min 0 min 0 W/m 6,3 km/h (2 Bft) 95,74 %
18.03.2017 21:32 10,1 C 10,0 C 8,9 C 98 % 15 lf 1009,1 hPa 0,0 l/m 0 min 0 min 0 W/m 6,3 km/h (2 Bft) 89,36 %
18.03.2017 21:34 10,1 C 10,0 C 8,9 C 98 % 15 lf 1009,1 hPa 0,0 l/m 0 min 0 min 0 W/m 8,4 km/h (2 Bft) 93,62 %
18.03.2017 21:36 10,1 C 10,0 C 8,9 C 98 % 15 lf 1009,1 hPa 0,0 l/m 0 min 0 min 0 W/m 6,3 km/h (2 Bft) 95,74 %
18.03.2017 21:38 10,1 C 10,0 C 8,9 C 98 % 15 lf 1009,1 hPa 0,0 l/m 0 min 0 min 0 W/m 6,3 km/h (2 Bft) 93,62 %
18.03.2017 21:40 10,1 C 10,0 C 8,9 C 98 % 15 lf 1009,1 hPa 0,0 l/m 0 min 0 min 0 W/m 8,4 km/h (2 Bft) 93,48 %
18.03.2017 21:42 10,1 C 10,0 C 8,9 C 98 % 15 lf 1009,2 hPa 0,0 l/m 0 min 0 min 0 W/m 8,4 km/h (2 Bft) 95,74 %
18.03.2017 21:44 10,1 C 10,0 C 8,9 C 98 % 15 lf 1009,2 hPa 0,0 l/m 0 min 0 min 0 W/m 6,3 km/h (2 Bft) 93,62 %
18.03.2017 21:46 10,1 C 10,0 C 8,9 C 98 % 15 lf 1009,4 hPa 0,0 l/m 0 min 0 min 0 W/m 6,3 km/h (2 Bft) 95,74 %
18.03.2017 21:48 10,1 C 10,0 C 8,9 C 98 % 15 lf 1009,4 hPa 0,0 l/m 0 min 2 min 0 W/m 10,5 km/h (2 Bft) 95,74 %
18.03.2017 21:50 10,1 C 10,0 C 8,9 C 98 % 15 lf 1009,3 hPa 0,0 l/m 0 min 2 min 0 W/m 10,5 km/h (2 Bft) 97,87 %
18.03.2017 21:52 10,1 C 10,0 C 8,9 C 98 % 15 lf 1009,3 hPa 0,0 l/m 0 min 2 min 0 W/m 6,3 km/h (2 Bft) 100,00 %
18.03.2017 21:54 10,1 C 10,0 C 8,9 C 98 % 15 lf 1009,1 hPa 0,0 l/m 0 min 2 min 0 W/m 6,3 km/h (2 Bft) 100,00 %
18.03.2017 21:56 10,1 C 10,0 C 8,9 C 98 % 15 lf 1009,1 hPa 0,2 l/m 0 min 2 min 0 W/m 8,4 km/h (2 Bft) 97,87 %
18.03.2017 21:58 10,1 C 10,0 C 8,9 C 98 % 15 lf 1009,1 hPa 0,0 l/m 0 min 2 min 0 W/m 10,5 km/h (2 Bft) 93,62 %
18.03.2017 22:00 10,1 C 10,0 C 8,9 C 98 % 15 lf 1009,0 hPa 0,0 l/m 0 min 2 min 0 W/m 6,3 km/h (2 Bft) 100,00 %
18.03.2017 22:02 10,1 C 10,0 C 8,9 C 98 % 15 lf 1009,2 hPa 0,0 l/m 0 min 2 min 0 W/m 8,4 km/h (2 Bft) 93,62 %
18.03.2017 22:04 10,1 C 10,0 C 8,9 C 98 % 15 lf 1009,1 hPa 0,0 l/m 0 min 2 min 0 W/m 4,2 km/h (1 Bft) 97,83 %
18.03.2017 22:06 10,1 C 10,0 C 8,9 C 98 % 15 lf 1009,1 hPa 0,0 l/m 0 min 2 min 0 W/m 8,4 km/h (2 Bft) 97,87 %
18.03.2017 22:08 10,1 C 10,0 C 8,9 C 98 % 15 lf 1009,3 hPa 0,0 l/m 0 min 2 min 0 W/m 6,3 km/h (2 Bft) 91,49 %
18.03.2017 22:10 10,1 C 10,0 C 8,9 C 98 % 15 lf 1009,3 hPa 0,2 l/m 0 min 2 min 0 W/m 6,3 km/h (2 Bft) 97,87 %
18.03.2017 22:12 10,1 C 10,0 C 8,9 C 98 % 15 lf 1009,4 hPa 0,0 l/m 0 min 2 min 0 W/m 6,3 km/h (2 Bft) 100,00 %
18.03.2017 22:14 10,1 C 10,0 C 8,9 C 98 % 15 lf 1009,3 hPa 0,0 l/m 0 min 2 min 0 W/m 4,2 km/h (1 Bft) 100,00 %
18.03.2017 22:16 10,1 C 10,0 C 8,9 C 98 % 15 lf 1009,3 hPa 0,0 l/m 0 min 2 min 0 W/m 4,2 km/h (1 Bft) 97,83 %
18.03.2017 22:18 10,1 C 10,0 C 8,9 C 98 % 15 lf 1009,3 hPa 0,0 l/m 0 min 2 min 0 W/m 6,3 km/h (2 Bft) 97,87 %
18.03.2017 22:20 10,0 C 10,0 C 8,9 C 98 % 15 lf 1009,3 hPa 0,2 l/m 0 min 2 min 0 W/m 6,3 km/h (2 Bft) 100,00 %
18.03.2017 22:22 10,0 C 10,0 C 8,9 C 98 % 15 lf 1009,3 hPa 0,0 l/m 0 min 2 min 0 W/m 6,3 km/h (2 Bft) 100,00 %
18.03.2017 22:24 10,0 C 10,0 C 8,9 C 98 % 15 lf 1009,3 hPa 0,0 l/m 0 min 2 min 0 W/m 6,3 km/h (2 Bft) 93,62 %
18.03.2017 22:26 10,0 C 10,0 C 8,9 C 98 % 15 lf 1009,3 hPa 0,0 l/m 0 min 2 min 0 W/m 4,2 km/h (1 Bft) 97,87 %
18.03.2017 22:28 10,0 C 10,0 C 8,9 C 98 % 15 lf 1009,4 hPa 0,2 l/m 0 min 2 min 0 W/m 4,2 km/h (1 Bft) 95,74 %
18.03.2017 22:30 10,0 C 10,0 C 8,9 C 98 % 15 lf 1009,4 hPa 0,0 l/m 0 min 2 min 0 W/m 4,2 km/h (1 Bft) 97,87 %
18.03.2017 22:32 10,0 C 10,0 C 8,9 C 98 % 15 lf 1009,4 hPa 0,0 l/m 0 min 2 min 0 W/m 4,2 km/h (1 Bft) 97,83 %
18.03.2017 22:34 10,0 C 10,0 C 8,9 C 98 % 15 lf 1009,4 hPa 0,0 l/m 0 min 2 min 0 W/m 6,3 km/h (2 Bft) 95,74 %
18.03.2017 22:36 10,0 C 10,0 C 8,9 C 98 % 15 lf 1009,4 hPa 0,0 l/m 0 min 2 min 0 W/m 6,3 km/h (2 Bft) 95,74 %
18.03.2017 22:38 10,0 C 10,0 C 8,9 C 98 % 15 lf 1009,3 hPa 0,2 l/m 0 min 2 min 0 W/m 4,2 km/h (1 Bft) 93,62 %
18.03.2017 22:40 10,0 C 10,0 C 8,9 C 98 % 15 lf 1009,3 hPa 0,0 l/m 0 min 2 min 0 W/m 6,3 km/h (2 Bft) 95,74 %
18.03.2017 22:43 10,0 C 10,0 C 8,9 C 98 % 15 lf 1009,3 hPa 0,0 l/m 0 min 2 min 0 W/m 6,3 km/h (2 Bft) 94,38 %
18.03.2017 22:44 10,0 C 10,0 C 8,9 C 98 % 15 lf 1009,3 hPa 0,0 l/m 0 min 1 min 0 W/m 6,3 km/h (2 Bft) 91,67 %
18.03.2017 22:46 10,0 C 10,0 C 8,9 C 98 % 15 lf 1009,3 hPa 0,0 l/m 0 min 2 min 0 W/m 6,3 km/h (2 Bft) 95,74 %
18.03.2017 22:48 9,9 C 10,0 C 8,9 C 98 % 15 lf 1009,3 hPa 0,0 l/m 0 min 2 min 0 W/m 6,3 km/h (2 Bft) 95,74 %
18.03.2017 22:50 9,9 C 10,0 C 8,3 C 98 % 15 lf 1009,4 hPa 0,0 l/m 0 min 2 min 0 W/m 6,3 km/h (2 Bft) 93,48 %
18.03.2017 22:52 9,9 C 10,0 C 8,3 C 98 % 15 lf 1009,3 hPa 0,0 l/m 0 min 2 min 0 W/m 8,4 km/h (2 Bft) 95,74 %
18.03.2017 22:54 9,9 C 10,0 C 8,3 C 98 % 15 lf 1009,4 hPa 0,2 l/m 0 min 2 min 0 W/m 6,3 km/h (2 Bft) 89,36 %
18.03.2017 22:56 9,9 C 10,0 C 8,3 C 98 % 15 lf 1009,4 hPa 0,0 l/m 0 min 2 min 0 W/m 8,4 km/h (2 Bft) 91,49 %
18.03.2017 22:58 9,9 C 10,0 C 8,3 C 98 % 15 lf 1009,5 hPa 0,0 l/m 0 min 2 min 0 W/m 6,3 km/h (2 Bft) 95,74 %
18.03.2017 23:00 9,9 C 10,0 C 8,3 C 98 % 15 lf 1009,5 hPa 0,0 l/m 0 min 2 min 0 W/m 4,2 km/h (1 Bft) 95,74 %
18.03.2017 23:02 9,9 C 10,0 C 8,3 C 98 % 15 lf 1009,6 hPa 0,0 l/m 0 min 2 min 0 W/m 6,3 km/h (2 Bft) 95,65 %
18.03.2017 23:04 9,9 C 10,0 C 8,3 C 98 % 15 lf 1009,6 hPa 0,0 l/m 0 min 2 min 0 W/m 4,2 km/h (1 Bft) 93,62 %
18.03.2017 23:06 9,9 C 10,0 C 8,3 C 98 % 15 lf 1009,7 hPa 0,0 l/m 0 min 2 min 0 W/m 4,2 km/h (1 Bft) 91,49 %
18.03.2017 23:08 9,9 C 10,0 C 8,3 C 98 % 15 lf 1009,7 hPa 0,2 l/m 0 min 2 min 0 W/m 6,3 km/h (2 Bft) 97,87 %
18.03.2017 23:10 9,9 C 10,0 C 8,3 C 98 % 15 lf 1009,7 hPa 0,0 l/m 0 min 2 min 0 W/m 6,3 km/h (2 Bft) 97,87 %
18.03.2017 23:12 9,9 C 10,0 C 8,3 C 98 % 15 lf 1009,7 hPa 0,0 l/m 0 min 2 min 0 W/m 6,3 km/h (2 Bft) 95,74 %
18.03.2017 23:14 9,9 C 10,0 C 8,3 C 98 % 15 lf 1009,7 hPa 0,2 l/m 0 min 2 min 0 W/m 4,2 km/h (1 Bft) 97,83 %
18.03.2017 23:16 9,9 C 10,0 C 8,3 C 98 % 15 lf 1009,7 hPa 0,0 l/m 0 min 2 min 0 W/m 6,3 km/h (2 Bft) 100,00 %
18.03.2017 23:18 9,9 C 10,0 C 8,3 C 98 % 15 lf 1009,7 hPa 0,0 l/m 0 min 2 min 0 W/m 6,3 km/h (2 Bft) 100,00 %
18.03.2017 23:20 9,9 C 9,4 C 8,3 C 98 % 15 lf 1009,7 hPa 0,0 l/m 0 min 2 min 0 W/m 8,4 km/h (2 Bft) 100,00 %
18.03.2017 23:22 9,9 C 9,4 C 8,3 C 98 % 15 lf 1009,6 hPa 0,0 l/m 0 min 2 min 0 W/m 6,3 km/h (2 Bft) 93,62 %
18.03.2017 23:24 9,8 C 9,4 C 8,3 C 98 % 15 lf 1009,5 hPa 0,2 l/m 0 min 2 min 0 W/m 6,3 km/h (2 Bft) 100,00 %
18.03.2017 23:26 9,8 C 9,4 C 8,3 C 98 % 15 lf 1009,5 hPa 0,0 l/m 0 min 2 min 0 W/m 8,4 km/h (2 Bft) 100,00 %
18.03.2017 23:28 9,8 C 9,4 C 8,3 C 98 % 15 lf 1009,5 hPa 0,0 l/m 0 min 2 min 0 W/m 6,3 km/h (2 Bft) 97,87 %
18.03.2017 23:30 9,8 C 9,4 C 8,3 C 98 % 15 lf 1009,5 hPa 0,2 l/m 0 min 2 min 0 W/m 6,3 km/h (2 Bft) 100,00 %
18.03.2017 23:32 9,8 C 9,4 C 8,3 C 98 % 15 lf 1009,5 hPa 0,0 l/m 0 min 2 min 0 W/m 6,3 km/h (2 Bft) 100,00 %
18.03.2017 23:34 9,8 C 9,4 C 8,3 C 98 % 15 lf 1009,6 hPa 0,0 l/m 0 min 2 min 0 W/m 8,4 km/h (2 Bft) 95,74 %
18.03.2017 23:36 9,8 C 9,4 C 8,3 C 98 % 15 lf 1009,6 hPa 0,0 l/m 0 min 2 min 0 W/m 8,4 km/h (2 Bft) 100,00 %
18.03.2017 23:38 9,8 C 9,4 C 8,3 C 98 % 15 lf 1009,5 hPa 0,0 l/m 0 min 2 min 0 W/m 4,2 km/h (1 Bft) 100,00 %
18.03.2017 23:40 9,8 C 9,4 C 8,3 C 98 % 15 lf 1009,4 hPa 0,0 l/m 0 min 2 min 0 W/m 8,4 km/h (2 Bft) 100,00 %
18.03.2017 23:42 9,8 C 9,4 C 8,3 C 98 % 15 lf 1009,3 hPa 0,2 l/m 0 min 2 min 0 W/m 10,5 km/h (2 Bft) 97,87 %
18.03.2017 23:44 9,8 C 9,4 C 8,3 C 98 % 15 lf 1009,2 hPa 0,0 l/m 0 min 2 min 0 W/m 10,5 km/h (2 Bft) 97,87 %
18.03.2017 23:46 9,8 C 9,4 C 8,3 C 98 % 15 lf 1009,3 hPa 0,2 l/m 0 min 2 min 0 W/m 6,3 km/h (2 Bft) 97,87 %
18.03.2017 23:48 9,8 C 9,4 C 8,3 C 98 % 15 lf 1009,1 hPa 0,0 l/m 0 min 2 min 0 W/m 8,4 km/h (2 Bft) 100,00 %
18.03.2017 23:50 9,8 C 9,4 C 8,3 C 98 % 15 lf 1009,1 hPa 0,0 l/m 0 min 2 min 0 W/m 6,3 km/h (2 Bft) 100,00 %
18.03.2017 23:52 9,8 C 9,4 C 8,3 C 98 % 15 lf 1009,1 hPa 0,0 l/m 0 min 2 min 0 W/m 8,4 km/h (2 Bft) 100,00 %
18.03.2017 23:54 9,7 C 9,4 C 8,3 C 98 % 15 lf 1009,2 hPa 0,0 l/m 0 min 2 min 0 W/m 8,4 km/h (2 Bft) 95,74 %
18.03.2017 23:56 9,7 C 9,4 C 8,3 C 98 % 15 lf 1009,2 hPa 0,0 l/m 0 min 2 min 0 W/m 8,4 km/h (2 Bft) 100,00 %
18.03.2017 23:58 9,7 C 9,4 C 8,3 C 98 % 15 lf 1009,3 hPa 0,0 l/m 0 min 2 min 0 W/m 8,4 km/h (2 Bft) 97,87 %
_ Min-Zeit 02:02 00:10 00:00 00:00 13:26 05:50 - - - - 20:56 05:52
Minimum _ 5,9 C 5,0 C 3,9 C 78 % 12 lf 1003,1 hPa - - - - 4,2 km/h (1 Bft) 48,84 %
_ Max-Zeit 14:56 13:28 13:26 07:36 00:00 23:06 00:00 14:48 00:00 13:30 03:32 00:02
Maximum _ 12,0 C 13,9 C 12,2 C 98 % 15 lf 1009,7 hPa 0,2 l/m 2 min 2 min 283 W/m 60,7 km/h
W-SW (7 Bft)
100,00 %
Durchschnitt _ 9,3 C 9,2 C 7,9 C 96 % 15 lf 1006,3 hPa #13,0 l/m #2 min. #19:54 h 69 W/m 25,0 km/h (4 Bft) 96,05 %
© 2017 W. Hausmann